Time,TemperatureF,DewpointF,PressureIn,WindDirection,WindDirectionDegrees,WindSpeedMPH,WindSpeedGustMPH,Humidity,HourlyPrecipIn,Conditions,Clouds,dailyrainin,SoftwareType,DateUTC
2013-06-07 00:01:00,76.0,72.2,29.73,West,262,0.0,2.0,88,0.00,,---,1.24,VWS V14.01,2013-06-07 04:01:00,
2013-06-07 00:02:00,76.1,72.3,29.73,West,262,0.0,2.0,88,0.00,,---,1.24,VWS V14.01,2013-06-07 04:02:00,
2013-06-07 00:03:00,76.1,72.3,29.73,West,262,0.0,2.0,88,0.00,,---,1.24,VWS V14.01,2013-06-07 04:03:00,
2013-06-07 00:07:00,76.1,72.3,29.73,WSW,248,0.0,9.0,88,0.00,,---,0.00,VWS V14.01,2013-06-07 04:07:00,
2013-06-07 00:08:00,76.1,72.3,29.73,WSW,248,0.0,9.0,88,0.00,,---,0.00,VWS V14.01,2013-06-07 04:08:00,
2013-06-07 00:09:00,76.1,72.3,29.73,WSW,248,0.0,9.0,88,0.00,,---,0.00,VWS V14.01,2013-06-07 04:09:00,
2013-06-07 00:10:00,76.1,72.3,29.73,West,266,1.0,9.0,88,0.00,,---,0.00,VWS V14.01,2013-06-07 04:10:00,
2013-06-07 00:11:00,76.1,72.3,29.73,West,266,0.0,9.0,88,0.00,,---,0.00,VWS V14.01,2013-06-07 04:11:00,
2013-06-07 00:13:00,76.1,72.3,29.73,West,266,0.0,9.0,88,0.00,,---,0.00,VWS V14.01,2013-06-07 04:13:00,
2013-06-07 00:14:00,76.1,72.3,29.73,West,268,0.0,9.0,88,0.00,,---,0.00,VWS V14.01,2013-06-07 04:14:00,
2013-06-07 00:15:00,76.1,72.3,29.73,West,267,1.0,9.0,88,0.00,,---,0.00,VWS V14.01,2013-06-07 04:15:00,
2013-06-07 00:17:00,76.1,72.3,29.73,West,267,0.0,9.0,88,0.00,,---,0.00,VWS V14.01,2013-06-07 04:17:00,
2013-06-07 00:20:00,76.0,72.2,29.74,West,266,1.0,9.0,88,0.00,,---,0.00,VWS V14.01,2013-06-07 04:20:00,
2013-06-07 00:22:00,76.0,72.2,29.74,West,266,4.0,9.0,88,0.00,,---,0.00,VWS V14.01,2013-06-07 04:22:00,
2013-06-07 00:25:00,76.0,72.2,29.74,West,266,0.0,9.0,88,0.00,,---,0.00,VWS V14.01,2013-06-07 04:25:00,
2013-06-07 00:27:00,76.0,72.2,29.74,West,266,0.0,9.0,88,0.00,,---,0.00,VWS V14.01,2013-06-07 04:27:00,
2013-06-07 00:32:00,76.0,72.2,29.74,West,266,0.0,9.0,88,0.00,,---,0.00,VWS V14.01,2013-06-07 04:32:00,
2013-06-07 00:34:00,76.0,72.2,29.74,West,266,1.0,9.0,88,0.00,,---,0.00,VWS V14.01,2013-06-07 04:34:00,
2013-06-07 00:35:00,76.0,72.2,29.74,West,266,0.0,9.0,88,0.00,,---,0.00,VWS V14.01,2013-06-07 04:35:00,
2013-06-07 00:38:00,76.0,72.2,29.74,WSW,257,5.0,9.0,88,0.00,,---,0.00,VWS V14.01,2013-06-07 04:38:00,
2013-06-07 00:39:00,76.0,72.2,29.74,WSW,257,0.0,9.0,88,0.00,,---,0.00,VWS V14.01,2013-06-07 04:39:00,
2013-06-07 00:40:00,76.0,72.2,29.74,WSW,257,0.0,9.0,88,0.00,,---,0.00,VWS V14.01,2013-06-07 04:40:00,
2013-06-07 00:43:00,76.0,72.5,29.74,SW,234,0.0,9.0,89,0.00,,---,0.00,VWS V14.01,2013-06-07 04:43:00,
2013-06-07 00:44:00,76.0,72.5,29.74,SW,234,0.0,9.0,89,0.00,,---,0.00,VWS V14.01,2013-06-07 04:44:00,
2013-06-07 00:45:00,76.0,72.5,29.74,SW,234,0.0,9.0,89,0.00,,---,0.00,VWS V14.01,2013-06-07 04:45:00,
2013-06-07 00:46:00,76.0,72.5,29.74,WSW,243,4.0,9.0,89,0.00,,---,0.00,VWS V14.01,2013-06-07 04:46:00,
2013-06-07 00:47:00,76.0,72.5,29.74,WSW,243,0.0,9.0,89,0.00,,---,0.00,VWS V14.01,2013-06-07 04:47:00,
2013-06-07 00:49:00,76.0,72.5,29.73,WSW,243,1.0,9.0,89,0.00,,---,0.00,VWS V14.01,2013-06-07 04:49:00,
2013-06-07 00:50:00,76.0,72.5,29.73,WSW,257,0.0,9.0,89,0.00,,---,0.00,VWS V14.01,2013-06-07 04:50:00,
2013-06-07 00:51:00,76.0,72.5,29.73,WSW,250,0.0,9.0,89,0.00,,---,0.00,VWS V14.01,2013-06-07 04:51:00,
2013-06-07 00:52:00,76.0,72.5,29.73,WSW,250,0.0,9.0,89,0.00,,---,0.00,VWS V14.01,2013-06-07 04:52:00,
2013-06-07 00:54:00,76.1,72.6,29.73,West,268,0.0,9.0,89,0.00,,---,0.00,VWS V14.01,2013-06-07 04:54:00,
2013-06-07 00:55:00,76.1,72.3,29.73,West,268,0.0,9.0,88,0.00,,---,0.00,VWS V14.01,2013-06-07 04:55:00,
2013-06-07 00:57:00,76.1,72.3,29.73,West,268,0.0,9.0,88,0.00,,---,0.00,VWS V14.01,2013-06-07 04:57:00,
2013-06-07 00:59:00,76.1,72.3,29.73,West,273,0.0,9.0,88,0.00,,---,0.00,VWS V14.01,2013-06-07 04:59:00,
2013-06-07 01:02:00,76.1,72.3,29.73,West,259,0.0,9.0,88,0.00,,---,0.00,VWS V14.01,2013-06-07 05:02:00,
2013-06-07 01:06:00,76.1,72.3,29.73,SW,227,0.0,2.0,88,0.00,,---,0.00,VWS V14.01,2013-06-07 05:06:00,
2013-06-07 01:07:00,76.1,72.3,29.73,SW,222,3.0,3.0,88,0.00,,---,0.00,VWS V14.01,2013-06-07 05:07:00,
2013-06-07 01:10:00,76.1,72.6,29.73,SW,233,2.0,4.0,89,0.00,,---,0.00,VWS V14.01,2013-06-07 05:10:00,
2013-06-07 01:11:00,76.1,72.6,29.73,SW,235,0.0,4.0,89,0.00,,---,0.00,VWS V14.01,2013-06-07 05:11:00,
2013-06-07 01:13:00,76.1,72.6,29.73,SW,235,0.0,4.0,89,0.00,,---,0.00,VWS V14.01,2013-06-07 05:13:00,
2013-06-07 01:18:00,76.1,72.6,29.72,WSW,254,4.0,7.0,89,0.00,,---,0.00,VWS V14.01,2013-06-07 05:18:00,
2013-06-07 01:19:00,76.1,72.6,29.72,WSW,256,0.0,7.0,89,0.00,,---,0.00,VWS V14.01,2013-06-07 05:19:00,
2013-06-07 01:20:00,76.1,72.6,29.72,WSW,255,2.0,7.0,89,0.00,,---,0.00,VWS V14.01,2013-06-07 05:20:00,
2013-06-07 01:23:00,76.1,72.6,29.72,WSW,255,2.0,7.0,89,0.00,,---,0.00,VWS V14.01,2013-06-07 05:23:00,
2013-06-07 01:24:00,76.1,72.6,29.72,WSW,254,0.0,7.0,89,0.00,,---,0.00,VWS V14.01,2013-06-07 05:24:00,
2013-06-07 01:25:00,76.1,72.6,29.72,WSW,253,1.0,7.0,89,0.00,,---,0.00,VWS V14.01,2013-06-07 05:25:00,
2013-06-07 01:30:00,76.1,72.6,29.72,WSW,253,2.0,7.0,89,0.00,,---,0.00,VWS V14.01,2013-06-07 05:30:00,
2013-06-07 01:31:00,76.1,72.6,29.72,WSW,253,0.0,7.0,89,0.00,,---,0.00,VWS V14.01,2013-06-07 05:31:00,
2013-06-07 01:32:00,76.1,72.6,29.72,WSW,253,0.0,7.0,89,0.00,,---,0.00,VWS V14.01,2013-06-07 05:32:00,
2013-06-07 01:36:00,76.1,72.6,29.72,SW,235,0.0,7.0,89,0.00,,---,0.00,VWS V14.01,2013-06-07 05:36:00,
2013-06-07 01:37:00,76.0,72.5,29.72,SW,235,1.0,7.0,89,0.00,,---,0.00,VWS V14.01,2013-06-07 05:37:00,
2013-06-07 01:38:00,76.1,72.6,29.72,SW,235,0.0,7.0,89,0.00,,---,0.00,VWS V14.01,2013-06-07 05:38:00,
2013-06-07 01:40:00,76.1,72.6,29.72,WSW,237,0.0,7.0,89,0.00,,---,0.00,VWS V14.01,2013-06-07 05:40:00,
2013-06-07 01:43:00,76.1,73.0,29.72,WSW,238,0.0,7.0,90,0.00,,---,0.00,VWS V14.01,2013-06-07 05:43:00,
2013-06-07 01:44:00,76.1,73.0,29.72,WSW,238,0.0,7.0,90,0.00,,---,0.00,VWS V14.01,2013-06-07 05:44:00,
2013-06-07 01:45:00,76.1,73.0,29.72,WSW,238,0.0,7.0,90,0.00,,---,0.00,VWS V14.01,2013-06-07 05:45:00,
2013-06-07 01:49:00,76.0,72.9,29.72,WSW,238,0.0,7.0,90,0.00,,---,0.00,VWS V14.01,2013-06-07 05:49:00,
2013-06-07 01:50:00,76.0,72.9,29.72,WSW,238,1.0,7.0,90,0.00,,---,0.00,VWS V14.01,2013-06-07 05:50:00,
2013-06-07 01:51:00,76.0,72.9,29.72,WSW,238,0.0,7.0,90,0.00,,---,0.00,VWS V14.01,2013-06-07 05:51:00,
2013-06-07 01:53:00,76.0,72.9,29.72,WSW,238,0.0,7.0,90,0.00,,---,0.00,VWS V14.01,2013-06-07 05:53:00,
2013-06-07 01:54:00,76.0,72.9,29.72,WSW,238,0.0,7.0,90,0.00,,---,0.00,VWS V14.01,2013-06-07 05:54:00,
2013-06-07 01:55:00,76.0,72.9,29.72,WSW,238,0.0,7.0,90,0.00,,---,0.00,VWS V14.01,2013-06-07 05:55:00,
2013-06-07 01:57:00,76.0,72.9,29.72,WSW,238,0.0,7.0,90,0.00,,---,0.00,VWS V14.01,2013-06-07 05:57:00,
2013-06-07 01:58:00,75.8,72.7,29.72,WSW,238,0.0,7.0,90,0.00,,---,0.00,VWS V14.01,2013-06-07 05:58:00,
2013-06-07 01:59:00,75.8,72.7,29.72,WSW,238,0.0,7.0,90,0.00,,---,0.00,VWS V14.01,2013-06-07 05:59:00,
2013-06-07 02:01:00,75.8,72.7,29.72,WSW,238,0.0,7.0,90,0.00,,---,0.00,VWS V14.01,2013-06-07 06:01:00,
2013-06-07 02:03:00,75.8,72.7,29.72,West,263,0.0,7.0,90,0.00,,---,0.00,VWS V14.01,2013-06-07 06:03:00,
2013-06-07 02:04:00,75.8,72.7,29.72,West,263,0.0,7.0,90,0.00,,---,0.00,VWS V14.01,2013-06-07 06:04:00,
2013-06-07 02:05:00,75.6,72.5,29.72,West,263,0.0,0.0,90,0.00,,---,0.00,VWS V14.01,2013-06-07 06:05:00,
2013-06-07 02:07:00,75.6,72.5,29.72,West,263,0.0,0.0,90,0.00,,---,0.00,VWS V14.01,2013-06-07 06:07:00,
2013-06-07 02:09:00,75.6,72.5,29.72,West,263,0.0,0.0,90,0.00,,---,0.00,VWS V14.01,2013-06-07 06:09:00,
2013-06-07 02:10:00,75.6,72.5,29.72,West,263,0.0,0.0,90,0.00,,---,0.00,VWS V14.01,2013-06-07 06:10:00,
2013-06-07 02:11:00,75.6,72.8,29.72,West,263,0.0,5.0,91,0.00,,---,0.00,VWS V14.01,2013-06-07 06:11:00,
2013-06-07 02:12:00,75.4,72.6,29.72,West,263,0.0,5.0,91,0.00,,---,0.00,VWS V14.01,2013-06-07 06:12:00,
2013-06-07 02:14:00,75.4,72.6,29.72,West,263,0.0,5.0,91,0.00,,---,0.00,VWS V14.01,2013-06-07 06:14:00,
2013-06-07 02:16:00,75.4,72.6,29.72,West,263,0.0,5.0,91,0.00,,---,0.00,VWS V14.01,2013-06-07 06:16:00,
2013-06-07 02:17:00,75.4,72.6,29.72,West,263,1.0,5.0,91,0.00,,---,0.00,VWS V14.01,2013-06-07 06:17:00,
2013-06-07 02:21:00,75.3,72.5,29.72,West,263,0.0,5.0,91,0.00,,---,0.00,VWS V14.01,2013-06-07 06:21:00,
2013-06-07 02:22:00,75.3,72.5,29.72,West,263,0.0,5.0,91,0.00,,---,0.00,VWS V14.01,2013-06-07 06:22:00,
2013-06-07 02:23:00,75.3,72.5,29.72,West,263,0.0,5.0,91,0.00,,---,0.00,VWS V14.01,2013-06-07 06:23:00,
2013-06-07 02:24:00,75.1,72.3,29.72,West,263,0.0,5.0,91,0.00,,---,0.00,VWS V14.01,2013-06-07 06:24:00,
2013-06-07 02:26:00,75.1,72.3,29.72,West,263,0.0,5.0,91,0.00,,---,0.00,VWS V14.01,2013-06-07 06:26:00,
2013-06-07 02:27:00,75.1,72.3,29.72,West,263,0.0,5.0,91,0.00,,---,0.00,VWS V14.01,2013-06-07 06:27:00,
2013-06-07 02:28:00,75.1,72.3,29.72,West,263,0.0,5.0,91,0.00,,---,0.00,VWS V14.01,2013-06-07 06:28:00,
2013-06-07 02:29:00,75.1,72.3,29.72,West,263,0.0,5.0,91,0.00,,---,0.00,VWS V14.01,2013-06-07 06:29:00,
2013-06-07 02:30:00,74.9,72.1,29.72,West,263,0.0,5.0,91,0.00,,---,0.00,VWS V14.01,2013-06-07 06:30:00,
2013-06-07 02:33:00,74.9,72.1,29.72,West,263,0.0,5.0,91,0.00,,---,0.00,VWS V14.01,2013-06-07 06:33:00,
2013-06-07 02:34:00,74.9,72.1,29.72,West,263,0.0,5.0,91,0.00,,---,0.00,VWS V14.01,2013-06-07 06:34:00,
2013-06-07 02:35:00,74.9,72.1,29.72,West,263,0.0,5.0,91,0.00,,---,0.00,VWS V14.01,2013-06-07 06:35:00,
2013-06-07 02:37:00,74.9,72.1,29.72,West,263,0.0,5.0,91,0.00,,---,0.00,VWS V14.01,2013-06-07 06:37:00,
2013-06-07 02:38:00,74.9,72.1,29.72,West,263,0.0,5.0,91,0.00,,---,0.00,VWS V14.01,2013-06-07 06:38:00,
2013-06-07 02:40:00,74.7,71.9,29.72,West,263,0.0,5.0,91,0.00,,---,0.00,VWS V14.01,2013-06-07 06:40:00,
2013-06-07 02:41:00,74.7,71.9,29.72,West,263,0.0,5.0,91,0.00,,---,0.00,VWS V14.01,2013-06-07 06:41:00,
2013-06-07 02:42:00,74.7,71.9,29.72,West,263,1.0,5.0,91,0.00,,---,0.00,VWS V14.01,2013-06-07 06:42:00,
2013-06-07 02:43:00,74.7,71.9,29.72,West,263,0.0,5.0,91,0.00,,---,0.00,VWS V14.01,2013-06-07 06:43:00,
2013-06-07 02:44:00,74.7,72.2,29.72,West,262,0.0,5.0,92,0.00,,---,0.00,VWS V14.01,2013-06-07 06:44:00,
2013-06-07 02:46:00,74.7,72.2,29.72,West,262,0.0,5.0,92,0.00,,---,0.00,VWS V14.01,2013-06-07 06:46:00,
2013-06-07 02:47:00,74.7,72.2,29.72,West,262,0.0,5.0,92,0.00,,---,0.00,VWS V14.01,2013-06-07 06:47:00,
2013-06-07 02:50:00,74.7,72.2,29.72,West,262,0.0,5.0,92,0.00,,---,0.00,VWS V14.01,2013-06-07 06:50:00,
2013-06-07 02:51:00,74.7,72.2,29.72,West,262,0.0,5.0,92,0.00,,---,0.00,VWS V14.01,2013-06-07 06:51:00,
2013-06-07 02:52:00,74.6,72.1,29.72,West,262,0.0,5.0,92,0.00,,---,0.00,VWS V14.01,2013-06-07 06:52:00,
2013-06-07 02:53:00,74.6,72.1,29.72,West,262,0.0,5.0,92,0.00,,---,0.00,VWS V14.01,2013-06-07 06:53:00,
2013-06-07 02:56:00,74.6,72.1,29.72,West,262,0.0,5.0,92,0.00,,---,0.00,VWS V14.01,2013-06-07 06:56:00,
2013-06-07 02:58:00,74.6,72.1,29.72,West,262,0.0,5.0,92,0.00,,---,0.00,VWS V14.01,2013-06-07 06:58:00,
2013-06-07 02:59:00,74.6,72.1,29.72,West,262,0.0,5.0,92,0.00,,---,0.00,VWS V14.01,2013-06-07 06:59:00,
2013-06-07 03:00:00,74.6,72.1,29.72,West,262,0.0,5.0,92,0.00,,---,0.00,VWS V14.01,2013-06-07 07:00:00,
2013-06-07 03:02:00,74.4,71.9,29.72,West,262,0.0,5.0,92,0.00,,---,0.00,VWS V14.01,2013-06-07 07:02:00,
2013-06-07 03:04:00,74.4,71.9,29.72,West,262,0.0,5.0,92,0.00,,---,0.00,VWS V14.01,2013-06-07 07:04:00,
2013-06-07 03:06:00,74.4,71.9,29.72,West,262,0.0,0.0,92,0.00,,---,0.00,VWS V14.01,2013-06-07 07:06:00,
2013-06-07 03:07:00,74.4,71.9,29.72,West,262,0.0,0.0,92,0.00,,---,0.00,VWS V14.01,2013-06-07 07:07:00,
2013-06-07 03:09:00,74.4,71.9,29.72,West,262,0.0,0.0,92,0.00,,---,0.00,VWS V14.01,2013-06-07 07:09:00,
2013-06-07 03:10:00,74.4,71.9,29.72,West,262,0.0,0.0,92,0.00,,---,0.00,VWS V14.01,2013-06-07 07:10:00,
2013-06-07 03:12:00,74.4,71.9,29.72,West,262,0.0,0.0,92,0.00,,---,0.00,VWS V14.01,2013-06-07 07:12:00,
2013-06-07 03:13:00,74.2,71.7,29.72,West,262,0.0,0.0,92,0.00,,---,0.00,VWS V14.01,2013-06-07 07:13:00,
2013-06-07 03:16:00,74.2,71.7,29.72,West,262,0.0,0.0,92,0.00,,---,0.00,VWS V14.01,2013-06-07 07:16:00,
2013-06-07 03:18:00,74.2,71.7,29.72,West,262,0.0,1.0,92,0.00,,---,0.00,VWS V14.01,2013-06-07 07:18:00,
2013-06-07 03:19:00,74.2,71.7,29.71,West,262,0.0,1.0,92,0.00,,---,0.00,VWS V14.01,2013-06-07 07:19:00,
2013-06-07 03:20:00,74.2,72.1,29.71,West,262,0.0,1.0,93,0.00,,---,0.00,VWS V14.01,2013-06-07 07:20:00,
2013-06-07 03:21:00,74.2,72.1,29.71,West,262,0.0,1.0,93,0.00,,---,0.00,VWS V14.01,2013-06-07 07:21:00,
2013-06-07 03:23:00,74.2,72.1,29.71,West,262,0.0,1.0,93,0.00,,---,0.00,VWS V14.01,2013-06-07 07:23:00,
2013-06-07 03:25:00,74.2,72.1,29.71,West,262,0.0,1.0,93,0.00,,---,0.00,VWS V14.01,2013-06-07 07:25:00,
2013-06-07 03:26:00,74.2,72.1,29.71,West,262,0.0,1.0,93,0.00,,---,0.00,VWS V14.01,2013-06-07 07:26:00,
2013-06-07 03:31:00,74.0,71.8,29.71,West,262,0.0,1.0,93,0.00,,---,0.00,VWS V14.01,2013-06-07 07:31:00,
2013-06-07 03:32:00,74.0,71.8,29.71,West,262,0.0,1.0,93,0.00,,---,0.00,VWS V14.01,2013-06-07 07:32:00,
2013-06-07 03:33:00,74.0,71.8,29.71,West,262,0.0,1.0,93,0.00,,---,0.00,VWS V14.01,2013-06-07 07:33:00,
2013-06-07 03:35:00,74.0,71.8,29.71,West,262,0.0,1.0,93,0.00,,---,0.00,VWS V14.01,2013-06-07 07:35:00,
2013-06-07 03:36:00,74.0,71.8,29.71,West,262,0.0,1.0,93,0.00,,---,0.00,VWS V14.01,2013-06-07 07:36:00,
2013-06-07 03:37:00,74.0,71.8,29.71,West,262,0.0,1.0,93,0.00,,---,0.00,VWS V14.01,2013-06-07 07:37:00,
2013-06-07 03:38:00,74.0,71.8,29.71,West,262,0.0,1.0,93,0.00,,---,0.00,VWS V14.01,2013-06-07 07:38:00,
2013-06-07 03:40:00,74.0,71.8,29.71,West,262,0.0,1.0,93,0.00,,---,0.00,VWS V14.01,2013-06-07 07:40:00,
2013-06-07 03:43:00,74.0,71.8,29.71,West,262,0.0,1.0,93,0.00,,---,0.00,VWS V14.01,2013-06-07 07:43:00,
2013-06-07 03:44:00,74.0,71.8,29.71,West,262,0.0,1.0,93,0.00,,---,0.00,VWS V14.01,2013-06-07 07:44:00,
2013-06-07 03:45:00,74.0,71.8,29.71,West,262,0.0,1.0,93,0.00,,---,0.00,VWS V14.01,2013-06-07 07:45:00,
2013-06-07 03:47:00,74.0,71.8,29.71,West,262,0.0,1.0,93,0.00,,---,0.00,VWS V14.01,2013-06-07 07:47:00,
2013-06-07 03:48:00,73.9,71.8,29.71,West,262,0.0,1.0,93,0.00,,---,0.00,VWS V14.01,2013-06-07 07:48:00,
2013-06-07 03:49:00,73.9,71.8,29.71,West,262,0.0,1.0,93,0.00,,---,0.00,VWS V14.01,2013-06-07 07:49:00,
2013-06-07 03:50:00,73.9,71.8,29.71,West,262,0.0,1.0,93,0.00,,---,0.00,VWS V14.01,2013-06-07 07:50:00,
2013-06-07 03:52:00,73.7,71.6,29.71,West,262,0.0,1.0,93,0.00,,---,0.00,VWS V14.01,2013-06-07 07:52:00,
2013-06-07 03:54:00,73.7,71.6,29.71,West,262,0.0,1.0,93,0.00,,---,0.00,VWS V14.01,2013-06-07 07:54:00,
2013-06-07 03:57:00,73.7,71.6,29.71,West,262,0.0,1.0,93,0.00,,---,0.00,VWS V14.01,2013-06-07 07:57:00,
2013-06-07 03:59:00,73.5,71.7,29.71,West,262,0.0,1.0,94,0.00,,---,0.00,VWS V14.01,2013-06-07 07:59:00,
2013-06-07 04:03:00,73.3,71.5,29.71,West,262,0.0,1.0,94,0.00,,---,0.00,VWS V14.01,2013-06-07 08:03:00,
2013-06-07 04:05:00,73.3,71.5,29.71,West,262,0.0,0.0,94,0.00,,---,0.00,VWS V14.01,2013-06-07 08:05:00,
2013-06-07 04:06:00,73.3,71.5,29.71,West,262,0.0,0.0,94,0.00,,---,0.00,VWS V14.01,2013-06-07 08:06:00,
2013-06-07 04:07:00,73.3,71.5,29.71,West,262,0.0,0.0,94,0.00,,---,0.00,VWS V14.01,2013-06-07 08:07:00,
2013-06-07 04:10:00,73.2,71.4,29.71,West,262,0.0,0.0,94,0.00,,---,0.00,VWS V14.01,2013-06-07 08:10:00,
2013-06-07 04:11:00,73.2,71.4,29.71,West,262,0.0,0.0,94,0.00,,---,0.00,VWS V14.01,2013-06-07 08:11:00,
2013-06-07 04:14:00,73.0,71.2,29.71,West,262,0.0,0.0,94,0.00,,---,0.00,VWS V14.01,2013-06-07 08:14:00,
2013-06-07 04:15:00,73.0,71.2,29.71,West,262,0.0,0.0,94,0.00,,---,0.00,VWS V14.01,2013-06-07 08:15:00,
2013-06-07 04:17:00,73.0,71.2,29.71,West,262,0.0,0.0,94,0.00,,---,0.00,VWS V14.01,2013-06-07 08:17:00,
2013-06-07 04:18:00,72.8,71.0,29.71,West,262,0.0,0.0,94,0.00,,---,0.00,VWS V14.01,2013-06-07 08:18:00,
2013-06-07 04:20:00,72.8,71.0,29.71,West,262,0.0,0.0,94,0.00,,---,0.00,VWS V14.01,2013-06-07 08:20:00,
2013-06-07 04:21:00,72.8,71.0,29.71,West,262,0.0,0.0,94,0.00,,---,0.00,VWS V14.01,2013-06-07 08:21:00,
2013-06-07 04:23:00,72.8,71.0,29.71,West,262,0.0,0.0,94,0.00,,---,0.00,VWS V14.01,2013-06-07 08:23:00,
2013-06-07 04:24:00,72.7,70.9,29.71,West,262,0.0,0.0,94,0.00,,---,0.00,VWS V14.01,2013-06-07 08:24:00,
2013-06-07 04:27:00,72.7,70.9,29.71,West,262,0.0,0.0,94,0.00,,---,0.00,VWS V14.01,2013-06-07 08:27:00,
2013-06-07 04:29:00,72.7,70.9,29.71,West,262,0.0,0.0,94,0.00,,---,0.00,VWS V14.01,2013-06-07 08:29:00,
2013-06-07 04:34:00,72.5,70.7,29.71,West,262,0.0,0.0,94,0.00,,---,0.00,VWS V14.01,2013-06-07 08:34:00,
2013-06-07 04:35:00,72.5,70.7,29.71,West,262,0.0,0.0,94,0.00,,---,0.00,VWS V14.01,2013-06-07 08:35:00,
2013-06-07 04:37:00,72.3,70.5,29.71,West,262,0.0,0.0,94,0.00,,---,0.00,VWS V14.01,2013-06-07 08:37:00,
2013-06-07 04:41:00,72.3,70.5,29.71,West,262,0.0,0.0,94,0.00,,---,0.00,VWS V14.01,2013-06-07 08:41:00,
2013-06-07 04:43:00,72.1,70.6,29.71,West,262,0.0,0.0,95,0.00,,---,0.00,VWS V14.01,2013-06-07 08:43:00,
2013-06-07 04:46:00,72.1,70.6,29.71,West,262,0.0,0.0,95,0.00,,---,0.00,VWS V14.01,2013-06-07 08:46:00,
2013-06-07 04:47:00,72.1,70.6,29.71,West,262,0.0,0.0,95,0.00,,---,0.00,VWS V14.01,2013-06-07 08:47:00,
2013-06-07 04:49:00,72.1,70.6,29.72,West,262,0.0,0.0,95,0.00,,---,0.00,VWS V14.01,2013-06-07 08:49:00,
2013-06-07 04:53:00,72.1,70.6,29.72,West,262,0.0,0.0,95,0.00,,---,0.00,VWS V14.01,2013-06-07 08:53:00,
2013-06-07 04:54:00,72.1,70.6,29.72,West,262,0.0,0.0,95,0.00,,---,0.00,VWS V14.01,2013-06-07 08:54:00,
2013-06-07 04:55:00,72.1,70.6,29.72,West,262,0.0,0.0,95,0.00,,---,0.00,VWS V14.01,2013-06-07 08:55:00,
2013-06-07 04:56:00,72.1,70.6,29.72,West,262,0.0,0.0,95,0.00,,---,0.00,VWS V14.01,2013-06-07 08:56:00,
2013-06-07 05:01:00,72.1,70.6,29.72,West,262,0.0,0.0,95,0.00,,---,0.00,VWS V14.01,2013-06-07 09:01:00,
2013-06-07 05:02:00,72.1,70.6,29.72,West,262,0.0,0.0,95,0.00,,---,0.00,VWS V14.01,2013-06-07 09:02:00,
2013-06-07 05:04:00,72.1,70.9,29.73,West,262,0.0,0.0,96,0.00,,---,0.00,VWS V14.01,2013-06-07 09:04:00,
2013-06-07 05:08:00,72.1,70.9,29.73,West,262,0.0,0.0,96,0.00,,---,0.00,VWS V14.01,2013-06-07 09:08:00,
2013-06-07 05:09:00,72.1,70.9,29.73,West,262,0.0,0.0,96,0.00,,---,0.00,VWS V14.01,2013-06-07 09:09:00,
2013-06-07 05:10:00,72.1,70.9,29.73,West,262,0.0,0.0,96,0.00,,---,0.00,VWS V14.01,2013-06-07 09:10:00,
2013-06-07 05:13:00,72.1,70.9,29.73,West,262,0.0,0.0,96,0.00,,---,0.00,VWS V14.01,2013-06-07 09:13:00,
2013-06-07 05:14:00,72.1,70.9,29.73,West,262,0.0,0.0,96,0.00,,---,0.00,VWS V14.01,2013-06-07 09:14:00,
2013-06-07 05:15:00,72.1,70.9,29.73,West,262,0.0,0.0,96,0.00,,---,0.00,VWS V14.01,2013-06-07 09:15:00,
2013-06-07 05:17:00,72.1,70.9,29.73,West,262,0.0,0.0,96,0.00,,---,0.00,VWS V14.01,2013-06-07 09:17:00,
2013-06-07 05:20:00,72.1,70.9,29.73,West,262,0.0,0.0,96,0.00,,---,0.00,VWS V14.01,2013-06-07 09:20:00,
2013-06-07 05:21:00,72.1,70.9,29.73,West,262,0.0,0.0,96,0.00,,---,0.00,VWS V14.01,2013-06-07 09:21:00,
2013-06-07 05:22:00,72.1,70.9,29.73,West,262,0.0,0.0,96,0.00,,---,0.00,VWS V14.01,2013-06-07 09:22:00,
2013-06-07 05:23:00,72.1,70.9,29.73,West,262,0.0,0.0,96,0.00,,---,0.00,VWS V14.01,2013-06-07 09:23:00,
2013-06-07 05:25:00,72.1,70.9,29.73,West,262,0.0,0.0,96,0.00,,---,0.00,VWS V14.01,2013-06-07 09:25:00,
2013-06-07 05:26:00,72.1,70.9,29.73,West,262,0.0,0.0,96,0.00,,---,0.00,VWS V14.01,2013-06-07 09:26:00,
2013-06-07 05:27:00,72.1,70.9,29.73,West,262,0.0,0.0,96,0.00,,---,0.00,VWS V14.01,2013-06-07 09:27:00,
2013-06-07 05:29:00,72.1,70.9,29.73,West,262,0.0,0.0,96,0.00,,---,0.00,VWS V14.01,2013-06-07 09:29:00,
2013-06-07 05:31:00,72.0,70.8,29.73,West,262,0.0,0.0,96,0.00,,---,0.00,VWS V14.01,2013-06-07 09:31:00,
2013-06-07 05:32:00,72.0,70.8,29.73,West,262,0.0,0.0,96,0.00,,---,0.00,VWS V14.01,2013-06-07 09:32:00,
2013-06-07 05:36:00,71.8,70.6,29.74,West,262,0.0,0.0,96,0.00,,---,0.00,VWS V14.01,2013-06-07 09:36:00,
2013-06-07 05:37:00,71.8,70.6,29.74,West,262,0.0,0.0,96,0.00,,---,0.00,VWS V14.01,2013-06-07 09:37:00,
2013-06-07 05:38:00,71.6,70.4,29.74,West,262,0.0,0.0,96,0.00,,---,0.00,VWS V14.01,2013-06-07 09:38:00,
2013-06-07 05:40:00,71.6,70.4,29.74,West,262,0.0,0.0,96,0.00,,---,0.00,VWS V14.01,2013-06-07 09:40:00,
2013-06-07 05:43:00,71.8,70.6,29.74,West,262,0.0,0.0,96,0.00,,---,0.00,VWS V14.01,2013-06-07 09:43:00,
2013-06-07 05:45:00,71.8,70.9,29.74,West,262,0.0,0.0,97,0.00,,---,0.00,VWS V14.01,2013-06-07 09:45:00,
2013-06-07 05:46:00,72.0,71.1,29.74,West,262,0.0,0.0,97,0.00,,---,0.00,VWS V14.01,2013-06-07 09:46:00,
2013-06-07 05:48:00,72.0,71.1,29.75,West,262,0.0,0.0,97,0.00,,---,0.00,VWS V14.01,2013-06-07 09:48:00,
2013-06-07 05:49:00,72.0,71.1,29.75,West,262,0.0,0.0,97,0.00,,---,0.00,VWS V14.01,2013-06-07 09:49:00,
2013-06-07 05:50:00,72.0,71.1,29.75,West,262,0.0,0.0,97,0.00,,---,0.00,VWS V14.01,2013-06-07 09:50:00,
2013-06-07 05:51:00,72.1,71.2,29.75,West,262,0.0,0.0,97,0.00,,---,0.00,VWS V14.01,2013-06-07 09:51:00,
2013-06-07 05:53:00,72.1,71.2,29.75,West,260,0.0,0.0,97,0.00,,---,0.00,VWS V14.01,2013-06-07 09:53:00,
2013-06-07 05:55:00,72.3,71.4,29.75,WSW,256,0.0,0.0,97,0.00,,---,0.00,VWS V14.01,2013-06-07 09:55:00,
2013-06-07 05:56:00,72.3,71.4,29.75,WSW,256,0.0,0.0,97,0.00,,---,0.00,VWS V14.01,2013-06-07 09:56:00,
2013-06-07 05:57:00,72.3,71.4,29.75,WSW,256,0.0,0.0,97,0.00,,---,0.00,VWS V14.01,2013-06-07 09:57:00,
2013-06-07 05:59:00,72.3,71.4,29.75,WSW,256,0.0,0.0,97,0.00,,---,0.00,VWS V14.01,2013-06-07 09:59:00,
2013-06-07 06:00:00,72.3,71.4,29.75,WSW,256,0.0,0.0,97,0.00,,---,0.00,VWS V14.01,2013-06-07 10:00:00,
2013-06-07 06:01:00,72.3,71.4,29.75,WSW,256,0.0,0.0,97,0.00,,---,0.00,VWS V14.01,2013-06-07 10:01:00,
2013-06-07 06:02:00,72.5,71.6,29.75,WSW,256,0.0,0.0,97,0.00,,---,0.00,VWS V14.01,2013-06-07 10:02:00,
2013-06-07 06:04:00,72.5,71.6,29.75,WSW,256,0.0,0.0,97,0.00,,---,0.00,VWS V14.01,2013-06-07 10:04:00,
2013-06-07 06:05:00,72.5,71.6,29.75,WSW,256,0.0,0.0,97,0.00,,---,0.00,VWS V14.01,2013-06-07 10:05:00,
2013-06-07 06:07:00,72.5,71.6,29.75,WSW,256,0.0,0.0,97,0.00,,---,0.00,VWS V14.01,2013-06-07 10:07:00,
2013-06-07 06:08:00,72.5,71.6,29.75,WSW,256,0.0,0.0,97,0.00,,---,0.00,VWS V14.01,2013-06-07 10:08:00,
2013-06-07 06:12:00,72.3,71.4,29.75,WSW,256,0.0,0.0,97,0.00,,---,0.00,VWS V14.01,2013-06-07 10:12:00,
2013-06-07 06:15:00,72.3,71.4,29.75,WSW,256,0.0,0.0,97,0.00,,---,0.00,VWS V14.01,2013-06-07 10:15:00,
2013-06-07 06:16:00,72.3,71.4,29.75,WSW,256,0.0,0.0,97,0.00,,---,0.00,VWS V14.01,2013-06-07 10:16:00,
2013-06-07 06:18:00,72.3,71.4,29.76,WSW,256,0.0,0.0,97,0.00,,---,0.00,VWS V14.01,2013-06-07 10:18:00,
2013-06-07 06:19:00,72.3,71.4,29.76,WSW,256,0.0,0.0,97,0.00,,---,0.00,VWS V14.01,2013-06-07 10:19:00,
2013-06-07 06:20:00,72.3,71.4,29.76,WSW,256,0.0,0.0,97,0.00,,---,0.00,VWS V14.01,2013-06-07 10:20:00,
2013-06-07 06:22:00,72.3,71.4,29.76,WSW,256,0.0,0.0,97,0.00,,---,0.00,VWS V14.01,2013-06-07 10:22:00,
2013-06-07 06:24:00,72.3,71.4,29.76,WSW,256,0.0,0.0,97,0.00,,---,0.00,VWS V14.01,2013-06-07 10:24:00,
2013-06-07 06:26:00,72.1,71.2,29.76,WSW,256,0.0,0.0,97,0.00,,---,0.00,VWS V14.01,2013-06-07 10:26:00,
2013-06-07 06:27:00,72.1,71.2,29.76,WSW,256,0.0,0.0,97,0.00,,---,0.00,VWS V14.01,2013-06-07 10:27:00,
2013-06-07 06:28:00,72.1,71.2,29.76,WSW,256,0.0,0.0,97,0.00,,---,0.00,VWS V14.01,2013-06-07 10:28:00,
2013-06-07 06:29:00,72.1,71.2,29.76,WSW,256,0.0,0.0,97,0.00,,---,0.00,VWS V14.01,2013-06-07 10:29:00,
2013-06-07 06:30:00,72.1,71.2,29.76,WSW,256,0.0,0.0,97,0.00,,---,0.00,VWS V14.01,2013-06-07 10:30:00,
2013-06-07 06:32:00,72.1,71.2,29.76,WSW,256,0.0,0.0,97,0.00,,---,0.00,VWS V14.01,2013-06-07 10:32:00,
2013-06-07 06:35:00,72.1,71.2,29.78,WSW,256,0.0,0.0,97,0.00,,---,0.00,VWS V14.01,2013-06-07 10:35:00,
2013-06-07 06:37:00,72.1,71.2,29.78,WSW,256,0.0,0.0,97,0.00,,---,0.00,VWS V14.01,2013-06-07 10:37:00,
2013-06-07 06:38:00,72.1,71.2,29.78,WSW,256,0.0,0.0,97,0.00,,---,0.00,VWS V14.01,2013-06-07 10:38:00,
2013-06-07 06:40:00,72.1,71.2,29.78,WSW,256,0.0,0.0,97,0.00,,---,0.00,VWS V14.01,2013-06-07 10:40:00,
2013-06-07 06:42:00,72.0,71.1,29.78,WSW,256,0.0,0.0,97,0.00,,---,0.00,VWS V14.01,2013-06-07 10:42:00,
2013-06-07 06:43:00,72.0,71.1,29.78,WSW,256,0.0,0.0,97,0.00,,---,0.00,VWS V14.01,2013-06-07 10:43:00,
2013-06-07 06:44:00,72.0,71.1,29.78,WSW,256,0.0,0.0,97,0.00,,---,0.00,VWS V14.01,2013-06-07 10:44:00,
2013-06-07 06:46:00,72.0,71.1,29.78,WSW,256,0.0,0.0,97,0.00,,---,0.00,VWS V14.01,2013-06-07 10:46:00,
2013-06-07 06:47:00,72.0,71.1,29.78,WSW,256,0.0,0.0,97,0.00,,---,0.00,VWS V14.01,2013-06-07 10:47:00,
2013-06-07 06:49:00,71.8,70.9,29.78,WSW,256,0.0,0.0,97,0.00,,---,0.00,VWS V14.01,2013-06-07 10:49:00,
2013-06-07 06:50:00,71.8,70.9,29.78,WSW,256,0.0,0.0,97,0.00,,---,0.00,VWS V14.01,2013-06-07 10:50:00,
2013-06-07 06:52:00,71.8,70.9,29.78,WSW,256,0.0,0.0,97,0.00,,---,0.00,VWS V14.01,2013-06-07 10:52:00,
2013-06-07 06:53:00,71.8,70.9,29.78,WSW,256,0.0,0.0,97,0.00,,---,0.00,VWS V14.01,2013-06-07 10:53:00,
2013-06-07 06:57:00,71.8,70.9,29.78,WSW,256,0.0,0.0,97,0.00,,---,0.00,VWS V14.01,2013-06-07 10:57:00,
2013-06-07 06:58:00,71.8,70.9,29.78,WSW,256,0.0,0.0,97,0.00,,---,0.00,VWS V14.01,2013-06-07 10:58:00,
2013-06-07 06:59:00,71.8,70.9,29.78,WSW,256,0.0,0.0,97,0.00,,---,0.00,VWS V14.01,2013-06-07 10:59:00,
2013-06-07 07:03:00,71.8,70.9,29.78,WSW,256,0.0,0.0,97,0.00,,---,0.00,VWS V14.01,2013-06-07 11:03:00,
2013-06-07 07:04:00,72.0,71.1,29.78,WSW,256,0.0,0.0,97,0.00,,---,0.00,VWS V14.01,2013-06-07 11:04:00,
2013-06-07 07:06:00,72.0,71.4,29.78,WSW,256,0.0,0.0,98,0.00,,---,0.00,VWS V14.01,2013-06-07 11:06:00,
2013-06-07 07:07:00,72.0,71.4,29.78,WSW,256,0.0,0.0,98,0.00,,---,0.00,VWS V14.01,2013-06-07 11:07:00,
2013-06-07 07:09:00,72.1,71.5,29.78,WSW,256,0.0,0.0,98,0.00,,---,0.00,VWS V14.01,2013-06-07 11:09:00,
2013-06-07 07:10:00,72.1,71.5,29.78,WSW,256,0.0,0.0,98,0.00,,---,0.00,VWS V14.01,2013-06-07 11:10:00,
2013-06-07 07:11:00,72.3,71.7,29.78,WSW,256,0.0,0.0,98,0.00,,---,0.00,VWS V14.01,2013-06-07 11:11:00,
2013-06-07 07:13:00,72.3,71.7,29.78,WSW,256,0.0,0.0,98,0.00,,---,0.00,VWS V14.01,2013-06-07 11:13:00,
2013-06-07 07:16:00,72.5,71.9,29.78,WSW,256,0.0,0.0,98,0.00,,---,0.00,VWS V14.01,2013-06-07 11:16:00,
2013-06-07 07:17:00,72.5,71.9,29.78,WSW,256,0.0,0.0,98,0.00,,---,0.00,VWS V14.01,2013-06-07 11:17:00,
2013-06-07 07:18:00,72.5,71.9,29.78,WSW,256,0.0,0.0,98,0.00,,---,0.00,VWS V14.01,2013-06-07 11:18:00,
2013-06-07 07:23:00,72.7,72.1,29.78,WSW,256,0.0,2.0,98,0.00,,---,0.00,VWS V14.01,2013-06-07 11:23:00,
2013-06-07 07:25:00,72.8,72.2,29.78,WSW,256,0.0,2.0,98,0.00,,---,0.00,VWS V14.01,2013-06-07 11:25:00,
2013-06-07 07:26:00,72.8,72.2,29.78,WSW,256,0.0,2.0,98,0.00,,---,0.00,VWS V14.01,2013-06-07 11:26:00,
2013-06-07 07:28:00,72.8,72.2,29.78,WSW,256,0.0,2.0,98,0.00,,---,0.00,VWS V14.01,2013-06-07 11:28:00,
2013-06-07 07:29:00,72.8,72.2,29.78,WSW,256,0.0,2.0,98,0.00,,---,0.00,VWS V14.01,2013-06-07 11:29:00,
2013-06-07 07:32:00,73.0,72.4,29.78,WSW,256,0.0,2.0,98,0.00,,---,0.00,VWS V14.01,2013-06-07 11:32:00,
2013-06-07 07:33:00,73.0,72.4,29.78,WSW,256,0.0,2.0,98,0.00,,---,0.00,VWS V14.01,2013-06-07 11:33:00,
2013-06-07 07:36:00,73.2,72.6,29.78,WSW,256,0.0,2.0,98,0.00,,---,0.00,VWS V14.01,2013-06-07 11:36:00,
2013-06-07 07:37:00,73.2,72.6,29.78,WSW,256,0.0,2.0,98,0.00,,---,0.00,VWS V14.01,2013-06-07 11:37:00,
2013-06-07 07:38:00,73.2,72.6,29.78,WSW,256,0.0,2.0,98,0.00,,---,0.00,VWS V14.01,2013-06-07 11:38:00,
2013-06-07 07:39:00,73.2,72.6,29.78,WSW,256,0.0,2.0,98,0.00,,---,0.00,VWS V14.01,2013-06-07 11:39:00,
2013-06-07 07:43:00,73.2,72.6,29.78,WSW,256,0.0,2.0,98,0.00,,---,0.00,VWS V14.01,2013-06-07 11:43:00,
2013-06-07 07:44:00,73.3,72.7,29.78,WSW,256,0.0,2.0,98,0.00,,---,0.00,VWS V14.01,2013-06-07 11:44:00,
2013-06-07 07:45:00,73.3,72.7,29.78,WSW,256,0.0,2.0,98,0.00,,---,0.00,VWS V14.01,2013-06-07 11:45:00,
2013-06-07 07:46:00,73.3,72.7,29.78,WSW,256,0.0,2.0,98,0.00,,---,0.00,VWS V14.01,2013-06-07 11:46:00,
2013-06-07 07:47:00,73.3,72.7,29.78,WSW,256,0.0,2.0,98,0.00,,---,0.00,VWS V14.01,2013-06-07 11:47:00,
2013-06-07 07:49:00,73.3,72.7,29.78,WSW,256,0.0,2.0,98,0.00,,---,0.00,VWS V14.01,2013-06-07 11:49:00,
2013-06-07 07:51:00,73.3,72.7,29.78,WSW,256,0.0,2.0,98,0.00,,---,0.00,VWS V14.01,2013-06-07 11:51:00,
2013-06-07 07:54:00,73.5,72.9,29.78,WSW,256,0.0,2.0,98,0.00,,---,0.00,VWS V14.01,2013-06-07 11:54:00,
2013-06-07 07:55:00,73.5,72.9,29.78,WSW,256,0.0,2.0,98,0.00,,---,0.00,VWS V14.01,2013-06-07 11:55:00,
2013-06-07 07:57:00,73.7,73.4,29.78,WSW,256,0.0,2.0,99,0.00,,---,0.00,VWS V14.01,2013-06-07 11:57:00,
2013-06-07 07:59:00,73.9,73.6,29.78,WSW,256,0.0,2.0,99,0.00,,---,0.00,VWS V14.01,2013-06-07 11:59:00,
2013-06-07 08:00:00,73.9,73.6,29.78,WSW,256,0.0,2.0,99,0.00,,---,0.00,VWS V14.01,2013-06-07 12:00:00,
2013-06-07 08:04:00,74.4,74.1,29.79,WSW,256,0.0,2.0,99,0.00,,---,0.00,VWS V14.01,2013-06-07 12:04:00,
2013-06-07 08:05:00,74.6,74.3,29.79,WSW,256,0.0,0.0,99,0.00,,---,0.00,VWS V14.01,2013-06-07 12:05:00,
2013-06-07 08:06:00,74.6,74.3,29.79,WSW,256,0.0,0.0,99,0.00,,---,0.00,VWS V14.01,2013-06-07 12:06:00,
2013-06-07 08:08:00,74.9,74.6,29.79,WSW,256,0.0,0.0,99,0.00,,---,0.00,VWS V14.01,2013-06-07 12:08:00,
2013-06-07 08:10:00,75.1,74.8,29.79,WSW,256,0.0,0.0,99,0.00,,---,0.00,VWS V14.01,2013-06-07 12:10:00,
2013-06-07 08:12:00,75.1,74.5,29.79,WSW,256,0.0,0.0,98,0.00,,---,0.00,VWS V14.01,2013-06-07 12:12:00,
2013-06-07 08:15:00,75.3,74.7,29.79,WSW,256,0.0,0.0,98,0.00,,---,0.00,VWS V14.01,2013-06-07 12:15:00,
2013-06-07 08:17:00,75.3,74.7,29.79,WSW,256,0.0,0.0,98,0.00,,---,0.00,VWS V14.01,2013-06-07 12:17:00,
2013-06-07 08:18:00,75.3,74.7,29.79,WSW,256,0.0,0.0,98,0.00,,---,0.00,VWS V14.01,2013-06-07 12:18:00,
2013-06-07 08:20:00,75.3,74.7,29.80,WSW,256,0.0,0.0,98,0.00,,---,0.00,VWS V14.01,2013-06-07 12:20:00,
2013-06-07 08:21:00,75.3,74.7,29.80,WSW,256,0.0,0.0,98,0.00,,---,0.00,VWS V14.01,2013-06-07 12:21:00,
2013-06-07 08:22:00,75.3,74.7,29.80,WSW,256,0.0,0.0,98,0.00,,---,0.00,VWS V14.01,2013-06-07 12:22:00,
2013-06-07 08:23:00,75.3,74.7,29.80,WSW,256,0.0,0.0,98,0.00,,---,0.00,VWS V14.01,2013-06-07 12:23:00,
2013-06-07 08:25:00,75.4,74.8,29.80,WSW,256,0.0,0.0,98,0.00,,---,0.00,VWS V14.01,2013-06-07 12:25:00,
2013-06-07 08:26:00,75.6,75.0,29.80,WSW,256,0.0,0.0,98,0.00,,---,0.00,VWS V14.01,2013-06-07 12:26:00,
2013-06-07 08:27:00,75.6,75.0,29.80,WSW,256,0.0,0.0,98,0.00,,---,0.00,VWS V14.01,2013-06-07 12:27:00,
2013-06-07 08:28:00,76.0,75.4,29.80,WSW,256,0.0,0.0,98,0.00,,---,0.00,VWS V14.01,2013-06-07 12:28:00,
2013-06-07 08:29:00,76.0,75.4,29.80,WSW,256,0.0,0.0,98,0.00,,---,0.00,VWS V14.01,2013-06-07 12:29:00,
2013-06-07 08:34:00,76.7,76.1,29.80,WSW,256,0.0,0.0,98,0.00,,---,0.00,VWS V14.01,2013-06-07 12:34:00,
2013-06-07 08:35:00,76.7,76.1,29.80,WSW,256,0.0,0.0,98,0.00,,---,0.00,VWS V14.01,2013-06-07 12:35:00,
2013-06-07 08:36:00,76.8,76.2,29.80,WSW,256,0.0,0.0,98,0.00,,---,0.00,VWS V14.01,2013-06-07 12:36:00,
2013-06-07 08:39:00,77.0,76.1,29.80,WSW,256,0.0,1.0,97,0.00,,---,0.00,VWS V14.01,2013-06-07 12:39:00,
2013-06-07 08:40:00,77.2,76.3,29.80,WSW,256,0.0,1.0,97,0.00,,---,0.00,VWS V14.01,2013-06-07 12:40:00,
2013-06-07 08:41:00,77.2,76.3,29.80,WSW,256,0.0,1.0,97,0.00,,---,0.00,VWS V14.01,2013-06-07 12:41:00,
2013-06-07 08:42:00,77.0,75.8,29.80,WSW,256,0.0,1.0,96,0.00,,---,0.00,VWS V14.01,2013-06-07 12:42:00,
2013-06-07 08:46:00,77.0,75.8,29.80,WSW,256,0.0,1.0,96,0.00,,---,0.00,VWS V14.01,2013-06-07 12:46:00,
2013-06-07 08:47:00,77.2,76.0,29.80,West,262,0.0,1.0,96,0.00,,---,0.00,VWS V14.01,2013-06-07 12:47:00,
2013-06-07 08:49:00,77.4,75.9,29.80,West,262,0.0,1.0,95,0.00,,---,0.00,VWS V14.01,2013-06-07 12:49:00,
2013-06-07 08:52:00,77.9,76.0,29.80,West,262,0.0,1.0,94,0.00,,---,0.00,VWS V14.01,2013-06-07 12:52:00,
2013-06-07 08:53:00,77.9,76.0,29.80,West,262,0.0,1.0,94,0.00,,---,0.00,VWS V14.01,2013-06-07 12:53:00,
2013-06-07 08:54:00,77.9,76.0,29.80,West,262,0.0,1.0,94,0.00,,---,0.00,VWS V14.01,2013-06-07 12:54:00,
2013-06-07 08:55:00,77.9,75.4,29.80,WSW,241,0.0,1.0,92,0.00,,---,0.00,VWS V14.01,2013-06-07 12:55:00,
2013-06-07 08:58:00,77.9,75.1,29.80,SSW,210,0.0,4.0,91,0.00,,---,0.00,VWS V14.01,2013-06-07 12:58:00,
2013-06-07 08:59:00,78.1,75.3,29.80,SSW,211,0.0,4.0,91,0.00,,---,0.00,VWS V14.01,2013-06-07 12:59:00,
2013-06-07 09:00:00,78.1,75.3,29.80,SSW,211,0.0,4.0,91,0.00,,---,0.00,VWS V14.01,2013-06-07 13:00:00,
2013-06-07 09:01:00,78.1,74.9,29.80,SSW,211,0.0,4.0,90,0.00,,---,0.00,VWS V14.01,2013-06-07 13:01:00,
2013-06-07 09:05:00,78.6,75.1,29.81,SSW,211,0.0,0.0,89,0.00,,---,0.00,VWS V14.01,2013-06-07 13:05:00,
2013-06-07 09:06:00,78.6,74.8,29.81,SSW,211,0.0,0.0,88,0.00,,---,0.00,VWS V14.01,2013-06-07 13:06:00,
2013-06-07 09:08:00,79.0,74.8,29.81,SE,136,0.0,0.0,87,0.00,,---,0.00,VWS V14.01,2013-06-07 13:08:00,
2013-06-07 09:09:00,79.2,74.7,29.81,SE,136,0.0,0.0,86,0.00,,---,0.00,VWS V14.01,2013-06-07 13:09:00,
2013-06-07 09:10:00,79.2,74.3,29.81,SE,136,0.0,0.0,85,0.00,,---,0.00,VWS V14.01,2013-06-07 13:10:00,
2013-06-07 09:12:00,79.4,74.2,29.81,SW,230,0.0,0.0,84,0.00,,---,0.00,VWS V14.01,2013-06-07 13:12:00,
2013-06-07 09:13:00,79.6,74.3,29.81,SSE,158,0.0,4.0,84,0.00,,---,0.00,VWS V14.01,2013-06-07 13:13:00,
2013-06-07 09:14:00,79.6,74.3,29.81,SSW,205,0.0,4.0,84,0.00,,---,0.00,VWS V14.01,2013-06-07 13:14:00,
2013-06-07 09:15:00,79.8,74.2,29.81,SSW,205,0.0,4.0,83,0.00,,---,0.00,VWS V14.01,2013-06-07 13:15:00,
2013-06-07 09:16:00,79.9,74.3,29.81,SW,219,5.0,5.0,83,0.00,,---,0.00,VWS V14.01,2013-06-07 13:16:00,
2013-06-07 09:17:00,80.1,74.1,29.81,SW,219,0.0,5.0,82,0.00,,---,0.00,VWS V14.01,2013-06-07 13:17:00,
2013-06-07 09:21:00,80.5,73.8,29.82,SW,221,0.0,5.0,80,0.00,,---,0.00,VWS V14.01,2013-06-07 13:21:00,
2013-06-07 09:22:00,80.7,74.0,29.82,SW,221,0.0,5.0,80,0.00,,---,0.00,VWS V14.01,2013-06-07 13:22:00,
2013-06-07 09:23:00,80.7,74.0,29.82,SW,221,0.0,5.0,80,0.00,,---,0.00,VWS V14.01,2013-06-07 13:23:00,
2013-06-07 09:25:00,80.5,73.4,29.82,SW,230,0.0,5.0,79,0.00,,---,0.00,VWS V14.01,2013-06-07 13:25:00,
2013-06-07 09:28:00,80.5,73.8,29.82,SW,231,0.0,5.0,80,0.00,,---,0.00,VWS V14.01,2013-06-07 13:28:00,
2013-06-07 09:30:00,80.9,74.2,29.82,SW,231,0.0,5.0,80,0.00,,---,0.00,VWS V14.01,2013-06-07 13:30:00,
2013-06-07 09:31:00,80.9,74.5,29.82,SW,222,0.0,5.0,81,0.00,,---,0.00,VWS V14.01,2013-06-07 13:31:00,
2013-06-07 09:34:00,81.1,73.6,29.82,SSW,212,0.0,5.0,78,0.00,,---,0.00,VWS V14.01,2013-06-07 13:34:00,
2013-06-07 09:35:00,81.2,73.3,29.82,SW,220,0.0,5.0,77,0.00,,---,0.00,VWS V14.01,2013-06-07 13:35:00,
2013-06-07 09:36:00,81.4,73.5,29.82,SE,127,0.0,5.0,77,0.00,,---,0.00,VWS V14.01,2013-06-07 13:36:00,
2013-06-07 09:37:00,81.6,73.3,29.82,South,175,0.0,5.0,76,0.00,,---,0.00,VWS V14.01,2013-06-07 13:37:00,
2013-06-07 09:39:00,81.8,73.1,29.82,SW,226,0.0,6.0,75,0.00,,---,0.00,VWS V14.01,2013-06-07 13:39:00,
2013-06-07 09:42:00,82.4,73.7,29.82,ESE,123,0.0,6.0,75,0.00,,---,0.00,VWS V14.01,2013-06-07 13:42:00,
2013-06-07 09:43:00,82.4,73.7,29.82,ESE,123,0.0,6.0,75,0.00,,---,0.00,VWS V14.01,2013-06-07 13:43:00,
2013-06-07 09:44:00,82.6,73.9,29.82,SSE,147,1.0,6.0,75,0.00,,---,0.00,VWS V14.01,2013-06-07 13:44:00,
2013-06-07 09:45:00,82.6,73.9,29.82,SSE,157,2.0,6.0,75,0.00,,---,0.00,VWS V14.01,2013-06-07 13:45:00,
2013-06-07 09:49:00,83.2,74.1,29.82,SSW,208,0.0,6.0,74,0.00,,---,0.00,VWS V14.01,2013-06-07 13:49:00,
2013-06-07 09:50:00,83.2,73.7,29.82,SSW,207,1.0,6.0,73,0.00,,---,0.00,VWS V14.01,2013-06-07 13:50:00,
2013-06-07 09:51:00,83.2,73.7,29.82,SW,214,0.0,6.0,73,0.00,,---,0.00,VWS V14.01,2013-06-07 13:51:00,
2013-06-07 09:54:00,83.4,73.8,29.82,SE,137,0.0,6.0,73,0.00,,---,0.00,VWS V14.01,2013-06-07 13:54:00,
2013-06-07 09:55:00,83.6,74.0,29.82,SE,124,0.0,6.0,73,0.00,,---,0.00,VWS V14.01,2013-06-07 13:55:00,
2013-06-07 09:56:00,83.6,73.6,29.82,South,176,0.0,6.0,72,0.00,,---,0.00,VWS V14.01,2013-06-07 13:56:00,
2013-06-07 09:59:00,83.8,73.8,29.82,WSW,246,1.0,6.0,72,0.00,,---,0.00,VWS V14.01,2013-06-07 13:59:00,
2013-06-07 10:01:00,83.8,73.8,29.82,SW,219,1.0,6.0,72,0.00,,---,0.00,VWS V14.01,2013-06-07 14:01:00,
2013-06-07 10:02:00,83.8,73.8,29.82,SW,219,1.0,6.0,72,0.00,,---,0.00,VWS V14.01,2013-06-07 14:02:00,
2013-06-07 10:03:00,83.8,73.8,29.83,West,259,5.0,6.0,72,0.00,,---,0.00,VWS V14.01,2013-06-07 14:03:00,
2013-06-07 10:06:00,83.6,74.0,29.83,SW,218,0.0,4.0,73,0.00,,---,0.00,VWS V14.01,2013-06-07 14:06:00,
2013-06-07 10:08:00,83.4,73.8,29.83,SW,218,0.0,4.0,73,0.00,,---,0.00,VWS V14.01,2013-06-07 14:08:00,
2013-06-07 10:10:00,83.2,73.7,29.83,WSW,242,0.0,4.0,73,0.00,,---,0.00,VWS V14.01,2013-06-07 14:10:00,
2013-06-07 10:12:00,83.2,74.1,29.83,WSW,242,0.0,4.0,74,0.00,,---,0.00,VWS V14.01,2013-06-07 14:12:00,
2013-06-07 10:14:00,83.0,73.9,29.83,WSW,242,0.0,4.0,74,0.00,,---,0.00,VWS V14.01,2013-06-07 14:14:00,
2013-06-07 10:15:00,82.8,73.7,29.83,WSW,242,0.0,4.0,74,0.00,,---,0.00,VWS V14.01,2013-06-07 14:15:00,
2013-06-07 10:17:00,82.6,73.1,29.83,WSW,243,0.0,4.0,73,0.00,,---,0.00,VWS V14.01,2013-06-07 14:17:00,
2013-06-07 10:18:00,82.6,73.5,29.83,SW,232,0.0,4.0,74,0.00,,---,0.00,VWS V14.01,2013-06-07 14:18:00,
2013-06-07 10:19:00,82.6,73.5,29.83,SW,232,0.0,4.0,74,0.00,,---,0.00,VWS V14.01,2013-06-07 14:19:00,
2013-06-07 10:20:00,82.4,73.3,29.83,SW,233,0.0,4.0,74,0.00,,---,0.00,VWS V14.01,2013-06-07 14:20:00,
2013-06-07 10:23:00,82.4,73.3,29.83,SSW,203,0.0,4.0,74,0.00,,---,0.00,VWS V14.01,2013-06-07 14:23:00,
2013-06-07 10:24:00,82.6,73.5,29.83,SW,224,0.0,4.0,74,0.00,,---,0.00,VWS V14.01,2013-06-07 14:24:00,
2013-06-07 10:29:00,82.6,73.1,29.83,WSW,242,1.0,5.0,73,0.00,,---,0.00,VWS V14.01,2013-06-07 14:29:00,
2013-06-07 10:30:00,82.6,73.1,29.83,WSW,242,0.0,5.0,73,0.00,,---,0.00,VWS V14.01,2013-06-07 14:30:00,
2013-06-07 10:31:00,82.6,73.5,29.83,WSW,242,1.0,5.0,74,0.00,,---,0.00,VWS V14.01,2013-06-07 14:31:00,
2013-06-07 10:33:00,82.6,73.5,29.83,SW,236,0.0,5.0,74,0.00,,---,0.00,VWS V14.01,2013-06-07 14:33:00,
2013-06-07 10:34:00,82.6,73.5,29.83,SW,233,0.0,5.0,74,0.00,,---,0.00,VWS V14.01,2013-06-07 14:34:00,
2013-06-07 10:38:00,82.4,73.3,29.83,WSW,237,0.0,5.0,74,0.00,,---,0.00,VWS V14.01,2013-06-07 14:38:00,
2013-06-07 10:39:00,82.4,73.3,29.83,WSW,237,6.0,6.0,74,0.00,,---,0.00,VWS V14.01,2013-06-07 14:39:00,
2013-06-07 10:41:00,82.4,73.7,29.83,WSW,237,0.0,6.0,75,0.00,,---,0.00,VWS V14.01,2013-06-07 14:41:00,
2013-06-07 10:44:00,82.8,74.5,29.83,SSE,162,0.0,6.0,76,0.00,,---,0.00,VWS V14.01,2013-06-07 14:44:00,
2013-06-07 10:47:00,83.6,74.4,29.83,WSW,258,0.0,6.0,74,0.00,,---,0.00,VWS V14.01,2013-06-07 14:47:00,
2013-06-07 10:48:00,83.6,74.4,29.83,West,260,4.0,6.0,74,0.00,,---,0.00,VWS V14.01,2013-06-07 14:48:00,
2013-06-07 10:49:00,83.6,74.4,29.83,SE,129,1.0,6.0,74,0.00,,---,0.00,VWS V14.01,2013-06-07 14:49:00,
2013-06-07 10:51:00,83.8,74.6,29.83,SW,217,5.0,6.0,74,0.00,,---,0.00,VWS V14.01,2013-06-07 14:51:00,
2013-06-07 10:53:00,83.8,74.2,29.83,West,269,0.0,6.0,73,0.00,,---,0.00,VWS V14.01,2013-06-07 14:53:00,
2013-06-07 10:54:00,83.8,73.8,29.83,SW,235,0.0,6.0,72,0.00,,---,0.00,VWS V14.01,2013-06-07 14:54:00,
2013-06-07 10:56:00,83.6,74.0,29.83,WSW,249,0.0,6.0,73,0.00,,---,0.00,VWS V14.01,2013-06-07 14:56:00,
2013-06-07 10:59:00,83.6,74.0,29.83,WSW,238,4.0,6.0,73,0.00,,---,0.00,VWS V14.01,2013-06-07 14:59:00,
2013-06-07 11:00:00,83.6,74.0,29.83,WSW,239,0.0,6.0,73,0.00,,---,0.00,VWS V14.01,2013-06-07 15:00:00,
2013-06-07 11:02:00,83.6,74.0,29.83,WSW,239,0.0,6.0,73,0.00,,---,0.00,VWS V14.01,2013-06-07 15:02:00,
2013-06-07 11:04:00,83.6,73.6,29.83,WSW,246,1.0,5.0,72,0.00,,---,0.00,VWS V14.01,2013-06-07 15:04:00,
2013-06-07 11:07:00,83.6,73.6,29.83,SE,146,1.0,5.0,72,0.00,,---,0.00,VWS V14.01,2013-06-07 15:07:00,
2013-06-07 11:08:00,83.6,73.6,29.83,SW,230,5.0,5.0,72,0.00,,---,0.00,VWS V14.01,2013-06-07 15:08:00,
2013-06-07 11:10:00,83.4,73.4,29.83,West,261,1.0,7.0,72,0.00,,---,0.00,VWS V14.01,2013-06-07 15:10:00,
2013-06-07 11:11:00,83.4,73.8,29.83,SW,224,1.0,7.0,73,0.00,,---,0.00,VWS V14.01,2013-06-07 15:11:00,
2013-06-07 11:13:00,84.0,73.6,29.83,SW,226,1.0,7.0,71,0.00,,---,0.00,VWS V14.01,2013-06-07 15:13:00,
2013-06-07 11:14:00,84.0,73.6,29.83,SW,225,0.0,7.0,71,0.00,,---,0.00,VWS V14.01,2013-06-07 15:14:00,
2013-06-07 11:16:00,84.5,74.1,29.83,SW,231,1.0,7.0,71,0.00,,---,0.00,VWS V14.01,2013-06-07 15:16:00,
2013-06-07 11:17:00,84.7,74.3,29.83,SW,231,0.0,7.0,71,0.00,,---,0.00,VWS V14.01,2013-06-07 15:17:00,
2013-06-07 11:18:00,84.7,73.8,29.84,SW,231,0.0,7.0,70,0.00,,---,0.00,VWS V14.01,2013-06-07 15:18:00,
2013-06-07 11:19:00,84.9,74.0,29.84,WSW,238,3.0,7.0,70,0.00,,---,0.00,VWS V14.01,2013-06-07 15:19:00,
2013-06-07 11:21:00,84.9,73.6,29.84,West,259,0.0,7.0,69,0.00,,---,0.00,VWS V14.01,2013-06-07 15:21:00,
2013-06-07 11:22:00,85.1,73.8,29.84,West,259,2.0,7.0,69,0.00,,---,0.00,VWS V14.01,2013-06-07 15:22:00,
2013-06-07 11:23:00,84.9,73.6,29.84,SW,229,0.0,7.0,69,0.00,,---,0.00,VWS V14.01,2013-06-07 15:23:00,
2013-06-07 11:26:00,85.1,72.9,29.84,SW,229,1.0,7.0,67,0.00,,---,0.00,VWS V14.01,2013-06-07 15:26:00,
2013-06-07 11:27:00,85.1,73.4,29.84,SW,231,0.0,7.0,68,0.00,,---,0.00,VWS V14.01,2013-06-07 15:27:00,
2013-06-07 11:28:00,84.9,72.3,29.84,West,271,4.0,7.0,66,0.00,,---,0.00,VWS V14.01,2013-06-07 15:28:00,
2013-06-07 11:29:00,84.9,72.3,29.84,West,266,1.0,7.0,66,0.00,,---,0.00,VWS V14.01,2013-06-07 15:29:00,
2013-06-07 11:30:00,84.9,72.3,29.84,West,266,0.0,7.0,66,0.00,,---,0.00,VWS V14.01,2013-06-07 15:30:00,
2013-06-07 11:31:00,85.1,73.4,29.84,South,187,0.0,7.0,68,0.00,,---,0.00,VWS V14.01,2013-06-07 15:31:00,
2013-06-07 11:32:00,85.3,73.1,29.84,SSW,210,0.0,7.0,67,0.00,,---,0.00,VWS V14.01,2013-06-07 15:32:00,
2013-06-07 11:35:00,85.5,73.3,29.84,SSW,213,0.0,7.0,67,0.00,,---,0.00,VWS V14.01,2013-06-07 15:35:00,
2013-06-07 11:37:00,85.7,73.5,29.84,SSW,212,0.0,7.0,67,0.00,,---,0.00,VWS V14.01,2013-06-07 15:37:00,
2013-06-07 11:38:00,85.9,73.2,29.84,SW,226,0.0,7.0,66,0.00,,---,0.00,VWS V14.01,2013-06-07 15:38:00,
2013-06-07 11:40:00,85.9,72.3,29.84,SW,231,0.0,7.0,64,0.00,,---,0.00,VWS V14.01,2013-06-07 15:40:00,
2013-06-07 11:43:00,85.9,72.3,29.84,WSW,255,0.0,7.0,64,0.00,,---,0.00,VWS V14.01,2013-06-07 15:43:00,
2013-06-07 11:44:00,85.9,72.8,29.84,SSW,195,0.0,7.0,65,0.00,,---,0.00,VWS V14.01,2013-06-07 15:44:00,
2013-06-07 11:45:00,86.1,72.5,29.84,SSW,195,0.0,7.0,64,0.00,,---,0.00,VWS V14.01,2013-06-07 15:45:00,
2013-06-07 11:46:00,85.9,71.8,29.84,SSW,212,0.0,7.0,63,0.00,,---,0.00,VWS V14.01,2013-06-07 15:46:00,
2013-06-07 11:51:00,85.9,71.4,29.85,WSW,249,1.0,7.0,62,0.00,,---,0.00,VWS V14.01,2013-06-07 15:51:00,
2013-06-07 11:52:00,85.9,71.4,29.85,SW,232,0.0,7.0,62,0.00,,---,0.00,VWS V14.01,2013-06-07 15:52:00,
2013-06-07 11:56:00,85.9,70.9,29.85,WSW,237,0.0,7.0,61,0.00,,---,0.00,VWS V14.01,2013-06-07 15:56:00,
2013-06-07 11:57:00,85.9,70.9,29.85,WSW,237,0.0,7.0,61,0.00,,---,0.00,VWS V14.01,2013-06-07 15:57:00,
2013-06-07 11:58:00,86.1,71.6,29.85,WSW,242,2.0,7.0,62,0.00,,---,0.00,VWS V14.01,2013-06-07 15:58:00,
2013-06-07 12:00:00,86.3,71.3,29.85,WSW,243,0.0,7.0,61,0.00,,---,0.00,VWS V14.01,2013-06-07 16:00:00,
2013-06-07 12:02:00,86.5,71.9,29.85,WSW,250,2.0,7.0,62,0.00,,---,0.00,VWS V14.01,2013-06-07 16:02:00,
2013-06-07 12:03:00,86.5,71.9,29.85,SSW,210,0.0,7.0,62,0.00,,---,0.00,VWS V14.01,2013-06-07 16:03:00,
2013-06-07 12:04:00,86.5,71.9,29.84,SSW,213,0.0,7.0,62,0.00,,---,0.00,VWS V14.01,2013-06-07 16:04:00,
2013-06-07 12:05:00,86.7,71.7,29.84,WSW,251,0.0,0.0,61,0.00,,---,0.00,VWS V14.01,2013-06-07 16:05:00,
2013-06-07 12:07:00,86.7,71.2,29.84,WSW,240,0.0,5.0,60,0.00,,---,0.00,VWS V14.01,2013-06-07 16:07:00,
2013-06-07 12:08:00,86.7,71.7,29.84,SW,228,5.0,5.0,61,0.00,,---,0.00,VWS V14.01,2013-06-07 16:08:00,
2013-06-07 12:09:00,86.7,71.7,29.84,SW,228,0.0,5.0,61,0.00,,---,0.00,VWS V14.01,2013-06-07 16:09:00,
2013-06-07 12:12:00,86.7,70.2,29.84,WSW,252,0.0,9.0,58,0.00,,---,0.00,VWS V14.01,2013-06-07 16:12:00,
2013-06-07 12:13:00,86.7,70.7,29.84,SW,233,0.0,9.0,59,0.00,,---,0.00,VWS V14.01,2013-06-07 16:13:00,
2013-06-07 12:14:00,87.0,71.4,29.84,SW,233,0.0,9.0,60,0.00,,---,0.00,VWS V14.01,2013-06-07 16:14:00,
2013-06-07 12:18:00,87.4,71.3,29.84,WSW,242,6.0,9.0,59,0.00,,---,0.00,VWS V14.01,2013-06-07 16:18:00,
2013-06-07 12:19:00,87.4,71.3,29.84,West,267,5.0,9.0,59,0.00,,---,0.00,VWS V14.01,2013-06-07 16:19:00,
2013-06-07 12:21:00,87.2,71.1,29.84,SW,225,0.0,9.0,59,0.00,,---,0.00,VWS V14.01,2013-06-07 16:21:00,
2013-06-07 12:24:00,86.7,69.7,29.84,WSW,244,0.0,9.0,57,0.00,,---,0.00,VWS V14.01,2013-06-07 16:24:00,
2013-06-07 12:26:00,86.7,70.7,29.84,South,173,6.0,9.0,59,0.00,,---,0.00,VWS V14.01,2013-06-07 16:26:00,
2013-06-07 12:27:00,86.5,70.0,29.84,SW,227,0.0,9.0,58,0.00,,---,0.00,VWS V14.01,2013-06-07 16:27:00,
2013-06-07 12:30:00,86.3,70.8,29.84,North,0,0.0,9.0,60,0.00,,---,0.00,VWS V14.01,2013-06-07 16:30:00,
2013-06-07 12:31:00,86.3,70.3,29.84,SSW,209,0.0,9.0,59,0.00,,---,0.00,VWS V14.01,2013-06-07 16:31:00,
2013-06-07 12:32:00,86.1,69.6,29.84,WSW,246,0.0,9.0,58,0.00,,---,0.00,VWS V14.01,2013-06-07 16:32:00,
2013-06-07 12:33:00,86.1,69.6,29.84,WSW,246,0.0,9.0,58,0.00,,---,0.00,VWS V14.01,2013-06-07 16:33:00,
2013-06-07 12:34:00,86.1,70.6,29.84,West,264,0.0,9.0,60,0.00,,---,0.00,VWS V14.01,2013-06-07 16:34:00,
2013-06-07 12:37:00,85.9,70.9,29.84,West,264,0.0,9.0,61,0.00,,---,0.00,VWS V14.01,2013-06-07 16:37:00,
2013-06-07 12:38:00,86.1,71.1,29.84,West,264,0.0,9.0,61,0.00,,---,0.00,VWS V14.01,2013-06-07 16:38:00,
2013-06-07 12:42:00,86.5,71.9,29.84,SW,219,0.0,9.0,62,0.00,,---,0.00,VWS V14.01,2013-06-07 16:42:00,
2013-06-07 12:43:00,86.5,71.9,29.84,SW,219,0.0,9.0,62,0.00,,---,0.00,VWS V14.01,2013-06-07 16:43:00,
2013-06-07 12:44:00,86.5,71.5,29.84,WSW,240,0.0,9.0,61,0.00,,---,0.00,VWS V14.01,2013-06-07 16:44:00,
2013-06-07 12:45:00,86.5,70.5,29.84,West,261,0.0,9.0,59,0.00,,---,0.00,VWS V14.01,2013-06-07 16:45:00,
2013-06-07 12:47:00,86.5,71.0,29.84,West,261,0.0,9.0,60,0.00,,---,0.00,VWS V14.01,2013-06-07 16:47:00,
2013-06-07 12:48:00,86.7,71.7,29.83,WSW,245,6.0,9.0,61,0.00,,---,0.00,VWS V14.01,2013-06-07 16:48:00,
2013-06-07 12:49:00,86.7,71.7,29.83,WSW,245,0.0,9.0,61,0.00,,---,0.00,VWS V14.01,2013-06-07 16:49:00,
2013-06-07 12:51:00,86.3,71.3,29.83,WSW,255,0.0,9.0,61,0.00,,---,0.00,VWS V14.01,2013-06-07 16:51:00,
2013-06-07 12:52:00,86.3,71.3,29.83,WSW,255,0.0,9.0,61,0.00,,---,0.00,VWS V14.01,2013-06-07 16:52:00,
2013-06-07 12:55:00,85.9,72.3,29.83,SW,223,0.0,9.0,64,0.00,,---,0.00,VWS V14.01,2013-06-07 16:55:00,
2013-06-07 12:56:00,85.9,71.8,29.83,SW,229,0.0,9.0,63,0.00,,---,0.00,VWS V14.01,2013-06-07 16:56:00,
2013-06-07 12:58:00,85.7,71.7,29.83,SW,229,0.0,9.0,63,0.00,,---,0.00,VWS V14.01,2013-06-07 16:58:00,
2013-06-07 13:01:00,85.3,71.3,29.83,WSW,250,0.0,9.0,63,0.00,,---,0.00,VWS V14.01,2013-06-07 17:01:00,
2013-06-07 13:03:00,85.1,72.0,29.83,West,271,1.0,9.0,65,0.00,,---,0.00,VWS V14.01,2013-06-07 17:03:00,
2013-06-07 13:05:00,84.9,72.3,29.83,WSW,243,5.0,5.0,66,0.00,,---,0.00,VWS V14.01,2013-06-07 17:05:00,
2013-06-07 13:06:00,84.7,71.6,29.83,WSW,238,0.0,5.0,65,0.00,,---,0.00,VWS V14.01,2013-06-07 17:06:00,
2013-06-07 13:07:00,84.7,72.1,29.83,WSW,238,0.0,5.0,66,0.00,,---,0.00,VWS V14.01,2013-06-07 17:07:00,
2013-06-07 13:08:00,84.7,72.5,29.83,WSW,238,0.0,5.0,67,0.00,,---,0.00,VWS V14.01,2013-06-07 17:08:00,
2013-06-07 13:10:00,84.9,72.3,29.83,WSW,238,0.0,5.0,66,0.00,,---,0.00,VWS V14.01,2013-06-07 17:10:00,
2013-06-07 13:11:00,84.9,72.7,29.83,WSW,238,0.0,5.0,67,0.00,,---,0.00,VWS V14.01,2013-06-07 17:11:00,
2013-06-07 13:13:00,85.1,72.5,29.83,WSW,257,0.0,5.0,66,0.00,,---,0.00,VWS V14.01,2013-06-07 17:13:00,
2013-06-07 13:14:00,85.1,72.0,29.83,WSW,257,0.0,5.0,65,0.00,,---,0.00,VWS V14.01,2013-06-07 17:14:00,
2013-06-07 13:15:00,85.1,72.5,29.83,WSW,257,3.0,5.0,66,0.00,,---,0.00,VWS V14.01,2013-06-07 17:15:00,
2013-06-07 13:16:00,84.9,72.3,29.83,West,268,6.0,6.0,66,0.00,,---,0.00,VWS V14.01,2013-06-07 17:16:00,
2013-06-07 13:17:00,84.7,71.6,29.83,South,173,0.0,6.0,65,0.00,,---,0.00,VWS V14.01,2013-06-07 17:17:00,
2013-06-07 13:20:00,84.5,72.3,29.83,WSW,239,0.0,6.0,67,0.00,,---,0.00,VWS V14.01,2013-06-07 17:20:00,
2013-06-07 13:21:00,84.5,72.3,29.83,WSW,245,0.0,6.0,67,0.00,,---,0.00,VWS V14.01,2013-06-07 17:21:00,
2013-06-07 13:22:00,84.5,72.3,29.83,West,264,6.0,6.0,67,0.00,,---,0.00,VWS V14.01,2013-06-07 17:22:00,
2013-06-07 13:23:00,84.3,72.2,29.83,West,280,0.0,6.0,67,0.00,,---,0.00,VWS V14.01,2013-06-07 17:23:00,
2013-06-07 13:27:00,84.0,71.9,29.83,WSW,244,0.0,7.0,67,0.00,,---,0.00,VWS V14.01,2013-06-07 17:27:00,
2013-06-07 13:28:00,84.0,72.3,29.83,West,261,8.0,8.0,68,0.00,,---,0.00,VWS V14.01,2013-06-07 17:28:00,
2013-06-07 13:30:00,84.0,72.7,29.83,West,261,0.0,8.0,69,0.00,,---,0.00,VWS V14.01,2013-06-07 17:30:00,
2013-06-07 13:31:00,84.0,73.2,29.83,West,261,0.0,8.0,70,0.00,,---,0.00,VWS V14.01,2013-06-07 17:31:00,
2013-06-07 13:33:00,84.3,73.9,29.83,West,261,0.0,8.0,71,0.00,,---,0.00,VWS V14.01,2013-06-07 17:33:00,
2013-06-07 13:34:00,84.3,73.9,29.83,West,261,0.0,8.0,71,0.00,,---,0.00,VWS V14.01,2013-06-07 17:34:00,
2013-06-07 13:36:00,84.7,73.8,29.83,SW,227,0.0,8.0,70,0.00,,---,0.00,VWS V14.01,2013-06-07 17:36:00,
2013-06-07 13:38:00,84.7,73.8,29.83,SW,227,0.0,8.0,70,0.00,,---,0.00,VWS V14.01,2013-06-07 17:38:00,
2013-06-07 13:39:00,84.9,73.2,29.83,SW,227,0.0,8.0,68,0.00,,---,0.00,VWS V14.01,2013-06-07 17:39:00,
2013-06-07 13:40:00,84.9,73.2,29.83,SW,227,0.0,8.0,68,0.00,,---,0.00,VWS V14.01,2013-06-07 17:40:00,
2013-06-07 13:41:00,84.9,72.7,29.83,SW,228,0.0,8.0,67,0.00,,---,0.00,VWS V14.01,2013-06-07 17:41:00,
2013-06-07 13:44:00,85.1,72.9,29.83,SW,229,0.0,8.0,67,0.00,,---,0.00,VWS V14.01,2013-06-07 17:44:00,
2013-06-07 13:45:00,85.1,72.9,29.83,SW,229,0.0,8.0,67,0.00,,---,0.00,VWS V14.01,2013-06-07 17:45:00,
2013-06-07 13:46:00,85.1,73.4,29.83,SSW,204,0.0,8.0,68,0.00,,---,0.00,VWS V14.01,2013-06-07 17:46:00,
2013-06-07 13:47:00,85.1,73.4,29.83,SW,233,0.0,8.0,68,0.00,,---,0.00,VWS V14.01,2013-06-07 17:47:00,
2013-06-07 13:50:00,84.9,73.2,29.83,WSW,245,0.0,8.0,68,0.00,,---,0.00,VWS V14.01,2013-06-07 17:50:00,
2013-06-07 13:52:00,84.7,73.0,29.83,SW,226,0.0,8.0,68,0.00,,---,0.00,VWS V14.01,2013-06-07 17:52:00,
2013-06-07 13:53:00,84.7,73.4,29.83,WSW,247,4.0,8.0,69,0.00,,---,0.00,VWS V14.01,2013-06-07 17:53:00,
2013-06-07 13:57:00,84.3,73.5,29.83,West,263,0.0,8.0,70,0.00,,---,0.00,VWS V14.01,2013-06-07 17:57:00,
2013-06-07 13:58:00,84.3,73.5,29.83,West,263,0.0,8.0,70,0.00,,---,0.00,VWS V14.01,2013-06-07 17:58:00,
2013-06-07 13:59:00,84.1,73.3,29.83,West,270,5.0,8.0,70,0.00,,---,0.00,VWS V14.01,2013-06-07 17:59:00,
2013-06-07 14:04:00,84.3,73.9,29.83,WNW,284,0.0,8.0,71,0.00,,---,0.00,VWS V14.01,2013-06-07 18:04:00,
2013-06-07 14:05:00,84.5,74.1,29.83,WNW,284,0.0,0.0,71,0.00,,---,0.00,VWS V14.01,2013-06-07 18:05:00,
2013-06-07 14:06:00,84.5,74.1,29.83,WNW,284,0.0,0.0,71,0.00,,---,0.00,VWS V14.01,2013-06-07 18:06:00,
2013-06-07 14:09:00,84.9,74.0,29.83,ESE,120,0.0,0.0,70,0.00,,---,0.00,VWS V14.01,2013-06-07 18:09:00,
2013-06-07 14:12:00,84.9,73.2,29.83,West,262,0.0,4.0,68,0.00,,---,0.00,VWS V14.01,2013-06-07 18:12:00,
2013-06-07 14:13:00,84.9,73.2,29.83,West,262,0.0,6.0,68,0.00,,---,0.00,VWS V14.01,2013-06-07 18:13:00,
2013-06-07 14:17:00,84.9,73.2,29.83,SW,221,0.0,6.0,68,0.00,,---,0.00,VWS V14.01,2013-06-07 18:17:00,
2013-06-07 14:18:00,85.1,73.4,29.83,SW,220,0.0,6.0,68,0.00,,---,0.00,VWS V14.01,2013-06-07 18:18:00,
2013-06-07 14:19:00,85.3,74.0,29.82,SW,221,0.0,6.0,69,0.00,,---,0.00,VWS V14.01,2013-06-07 18:19:00,
2013-06-07 14:20:00,85.3,74.0,29.82,SW,221,0.0,6.0,69,0.00,,---,0.00,VWS V14.01,2013-06-07 18:20:00,
2013-06-07 14:22:00,85.3,73.1,29.82,WSW,255,0.0,6.0,67,0.00,,---,0.00,VWS V14.01,2013-06-07 18:22:00,
2013-06-07 14:23:00,85.3,73.1,29.82,WSW,255,0.0,6.0,67,0.00,,---,0.00,VWS V14.01,2013-06-07 18:23:00,
2013-06-07 14:28:00,85.3,73.6,29.82,WSW,255,0.0,6.0,68,0.00,,---,0.00,VWS V14.01,2013-06-07 18:28:00,
2013-06-07 14:29:00,85.5,74.2,29.82,WSW,239,6.0,6.0,69,0.00,,---,0.00,VWS V14.01,2013-06-07 18:29:00,
2013-06-07 14:31:00,85.5,73.7,29.82,SW,217,0.0,7.0,68,0.00,,---,0.00,VWS V14.01,2013-06-07 18:31:00,
2013-06-07 14:34:00,85.5,73.3,29.82,South,181,0.0,7.0,67,0.00,,---,0.00,VWS V14.01,2013-06-07 18:34:00,
2013-06-07 14:35:00,85.7,73.9,29.82,South,181,0.0,7.0,68,0.00,,---,0.00,VWS V14.01,2013-06-07 18:35:00,
2013-06-07 14:39:00,85.3,73.1,29.82,WSW,245,0.0,7.0,67,0.00,,---,0.00,VWS V14.01,2013-06-07 18:39:00,
2013-06-07 14:40:00,85.3,73.1,29.82,WSW,245,0.0,7.0,67,0.00,,---,0.00,VWS V14.01,2013-06-07 18:40:00,
2013-06-07 14:42:00,84.9,72.7,29.82,WSW,248,0.0,7.0,67,0.00,,---,0.00,VWS V14.01,2013-06-07 18:42:00,
2013-06-07 14:46:00,84.7,73.0,29.82,WSW,245,0.0,7.0,68,0.00,,---,0.00,VWS V14.01,2013-06-07 18:46:00,
2013-06-07 14:47:00,84.5,73.2,29.82,SW,215,0.0,7.0,69,0.00,,---,0.00,VWS V14.01,2013-06-07 18:47:00,
2013-06-07 14:49:00,84.7,73.4,29.83,WSW,253,5.0,7.0,69,0.00,,---,0.00,VWS V14.01,2013-06-07 18:49:00,
2013-06-07 14:53:00,85.1,72.9,29.83,SSE,155,0.0,7.0,67,0.00,,---,0.00,VWS V14.01,2013-06-07 18:53:00,
2013-06-07 14:54:00,85.1,72.9,29.83,West,260,0.0,7.0,67,0.00,,---,0.00,VWS V14.01,2013-06-07 18:54:00,
2013-06-07 14:58:00,84.9,72.3,29.83,West,276,4.0,7.0,66,0.00,,---,0.00,VWS V14.01,2013-06-07 18:58:00,
2013-06-07 14:59:00,84.7,71.6,29.83,WSW,252,0.0,7.0,65,0.00,,---,0.00,VWS V14.01,2013-06-07 18:59:00,
2013-06-07 15:00:00,84.7,72.1,29.83,SSW,206,2.0,7.0,66,0.00,,---,0.00,VWS V14.01,2013-06-07 19:00:00,
2013-06-07 15:05:00,84.5,71.4,29.83,SW,229,4.0,5.0,65,0.00,,---,0.00,VWS V14.01,2013-06-07 19:05:00,
2013-06-07 15:06:00,84.5,71.4,29.83,West,268,4.0,5.0,65,0.00,,---,0.00,VWS V14.01,2013-06-07 19:06:00,
2013-06-07 15:07:00,84.5,72.3,29.83,West,268,0.0,5.0,67,0.00,,---,0.00,VWS V14.01,2013-06-07 19:07:00,
2013-06-07 15:10:00,84.5,71.9,29.83,SSW,193,0.0,5.0,66,0.00,,---,0.00,VWS V14.01,2013-06-07 19:10:00,
2013-06-07 15:11:00,84.5,71.9,29.83,SW,227,0.0,5.0,66,0.00,,---,0.00,VWS V14.01,2013-06-07 19:11:00,
2013-06-07 15:13:00,84.5,71.9,29.83,SW,228,0.0,5.0,66,0.00,,---,0.00,VWS V14.01,2013-06-07 19:13:00,
2013-06-07 15:14:00,84.5,72.3,29.83,SW,228,0.0,5.0,67,0.00,,---,0.00,VWS V14.01,2013-06-07 19:14:00,
2013-06-07 15:15:00,84.3,71.7,29.83,WSW,246,1.0,5.0,66,0.00,,---,0.00,VWS V14.01,2013-06-07 19:15:00,
2013-06-07 15:18:00,84.0,71.9,29.82,WSW,250,0.0,9.0,67,0.00,,---,0.00,VWS V14.01,2013-06-07 19:18:00,
2013-06-07 15:19:00,84.0,72.3,29.82,WSW,249,0.0,9.0,68,0.00,,---,0.00,VWS V14.01,2013-06-07 19:19:00,
2013-06-07 15:20:00,84.0,72.3,29.82,WSW,249,0.0,9.0,68,0.00,,---,0.00,VWS V14.01,2013-06-07 19:20:00,
2013-06-07 15:21:00,84.0,72.3,29.82,SW,221,0.0,9.0,68,0.00,,---,0.00,VWS V14.01,2013-06-07 19:21:00,
2013-06-07 15:26:00,83.8,71.2,29.82,WSW,238,5.0,9.0,66,0.00,,---,0.00,VWS V14.01,2013-06-07 19:26:00,
2013-06-07 15:27:00,83.6,71.5,29.82,WSW,238,0.0,9.0,67,0.00,,---,0.00,VWS V14.01,2013-06-07 19:27:00,
2013-06-07 15:29:00,83.8,72.1,29.82,WSW,239,0.0,9.0,68,0.00,,---,0.00,VWS V14.01,2013-06-07 19:29:00,
2013-06-07 15:32:00,83.6,71.9,29.82,West,281,4.0,9.0,68,0.00,,---,0.00,VWS V14.01,2013-06-07 19:32:00,
2013-06-07 15:34:00,83.4,71.7,29.82,WSW,254,0.0,9.0,68,0.00,,---,0.00,VWS V14.01,2013-06-07 19:34:00,
2013-06-07 15:36:00,83.4,72.2,29.82,WSW,238,0.0,9.0,69,0.00,,---,0.00,VWS V14.01,2013-06-07 19:36:00,
2013-06-07 15:40:00,83.4,72.6,29.82,WSW,248,0.0,9.0,70,0.00,,---,0.00,VWS V14.01,2013-06-07 19:40:00,
2013-06-07 15:42:00,83.4,73.0,29.82,SW,230,0.0,9.0,71,0.00,,---,0.00,VWS V14.01,2013-06-07 19:42:00,
2013-06-07 15:44:00,83.2,72.4,29.82,SW,221,5.0,9.0,70,0.00,,---,0.00,VWS V14.01,2013-06-07 19:44:00,
2013-06-07 15:46:00,83.2,72.4,29.82,SW,233,0.0,9.0,70,0.00,,---,0.00,VWS V14.01,2013-06-07 19:46:00,
2013-06-07 15:48:00,83.2,72.4,29.83,SW,222,0.0,9.0,70,0.00,,---,0.00,VWS V14.01,2013-06-07 19:48:00,
2013-06-07 15:50:00,83.2,72.8,29.83,West,273,0.0,9.0,71,0.00,,---,0.00,VWS V14.01,2013-06-07 19:50:00,
2013-06-07 15:54:00,82.8,72.0,29.83,SW,235,2.0,9.0,70,0.00,,---,0.00,VWS V14.01,2013-06-07 19:54:00,
2013-06-07 15:55:00,82.8,72.0,29.83,WSW,257,0.0,9.0,70,0.00,,---,0.00,VWS V14.01,2013-06-07 19:55:00,
2013-06-07 15:56:00,82.8,72.4,29.83,NW,314,7.0,9.0,71,0.00,,---,0.00,VWS V14.01,2013-06-07 19:56:00,
2013-06-07 16:02:00,82.8,72.9,29.83,WSW,250,6.0,9.0,72,0.00,,---,0.00,VWS V14.01,2013-06-07 20:02:00,
2013-06-07 16:05:00,83.0,73.5,29.83,WSW,241,0.0,9.0,73,0.00,,---,0.00,VWS V14.01,2013-06-07 20:05:00,
2013-06-07 16:06:00,83.0,73.5,29.83,WSW,238,0.0,9.0,73,0.00,,---,0.00,VWS V14.01,2013-06-07 20:06:00,
2013-06-07 16:07:00,83.0,73.1,29.83,WSW,249,0.0,9.0,72,0.00,,---,0.00,VWS V14.01,2013-06-07 20:07:00,
2013-06-07 16:10:00,83.2,73.2,29.83,WSW,243,0.0,9.0,72,0.00,,---,0.00,VWS V14.01,2013-06-07 20:10:00,
2013-06-07 16:11:00,83.2,73.2,29.83,WSW,252,0.0,9.0,72,0.00,,---,0.00,VWS V14.01,2013-06-07 20:11:00,
2013-06-07 16:12:00,83.2,73.2,29.83,SW,233,0.0,9.0,72,0.00,,---,0.00,VWS V14.01,2013-06-07 20:12:00,
2013-06-07 16:17:00,83.2,73.2,29.83,SW,233,4.0,9.0,72,0.00,,---,0.00,VWS V14.01,2013-06-07 20:17:00,
2013-06-07 16:18:00,83.2,72.8,29.83,WSW,238,0.0,9.0,71,0.00,,---,0.00,VWS V14.01,2013-06-07 20:18:00,
2013-06-07 16:20:00,83.2,73.2,29.83,SW,231,0.0,9.0,72,0.00,,---,0.00,VWS V14.01,2013-06-07 20:20:00,
2013-06-07 16:24:00,83.6,73.2,29.83,SW,230,0.0,9.0,71,0.00,,---,0.00,VWS V14.01,2013-06-07 20:24:00,
2013-06-07 16:27:00,83.6,73.6,29.83,WSW,255,0.0,9.0,72,0.00,,---,0.00,VWS V14.01,2013-06-07 20:27:00,
2013-06-07 16:28:00,83.6,73.6,29.83,SW,229,0.0,9.0,72,0.00,,---,0.00,VWS V14.01,2013-06-07 20:28:00,
2013-06-07 16:31:00,83.8,73.8,29.83,WSW,250,0.0,9.0,72,0.00,,---,0.00,VWS V14.01,2013-06-07 20:31:00,
2013-06-07 16:32:00,83.8,73.8,29.83,WSW,250,0.0,9.0,72,0.00,,---,0.00,VWS V14.01,2013-06-07 20:32:00,
2013-06-07 16:33:00,83.8,73.8,29.83,WSW,250,0.0,9.0,72,0.00,,---,0.00,VWS V14.01,2013-06-07 20:33:00,
2013-06-07 16:34:00,84.0,74.0,29.82,WSW,240,2.0,9.0,72,0.00,,---,0.00,VWS V14.01,2013-06-07 20:34:00,
2013-06-07 16:38:00,84.0,73.6,29.82,West,273,0.0,9.0,71,0.00,,---,0.00,VWS V14.01,2013-06-07 20:38:00,
2013-06-07 16:39:00,84.0,74.0,29.82,West,273,0.0,9.0,72,0.00,,---,0.00,VWS V14.01,2013-06-07 20:39:00,
2013-06-07 16:41:00,83.8,73.8,29.82,WSW,241,0.0,9.0,72,0.00,,---,0.00,VWS V14.01,2013-06-07 20:41:00,
2013-06-07 16:44:00,84.0,74.4,29.82,WSW,243,0.0,9.0,73,0.00,,---,0.00,VWS V14.01,2013-06-07 20:44:00,
2013-06-07 16:45:00,84.0,74.4,29.82,WSW,240,0.0,9.0,73,0.00,,---,0.00,VWS V14.01,2013-06-07 20:45:00,
2013-06-07 16:46:00,84.0,74.4,29.82,WSW,238,0.0,9.0,73,0.00,,---,0.00,VWS V14.01,2013-06-07 20:46:00,
2013-06-07 16:49:00,84.1,74.1,29.83,West,270,5.0,9.0,72,0.00,,---,0.00,VWS V14.01,2013-06-07 20:49:00,
2013-06-07 16:50:00,84.1,74.1,29.83,West,270,0.0,9.0,72,0.00,,---,0.00,VWS V14.01,2013-06-07 20:50:00,
2013-06-07 16:51:00,84.1,74.5,29.83,West,270,0.0,9.0,73,0.00,,---,0.00,VWS V14.01,2013-06-07 20:51:00,
2013-06-07 16:55:00,84.0,74.4,29.83,SW,225,0.0,10.0,73,0.00,,---,0.00,VWS V14.01,2013-06-07 20:55:00,
2013-06-07 16:59:00,84.3,74.7,29.83,SW,221,0.0,10.0,73,0.00,,---,0.00,VWS V14.01,2013-06-07 20:59:00,
2013-06-07 17:00:00,84.1,74.1,29.83,WSW,252,0.0,10.0,72,0.00,,---,0.00,VWS V14.01,2013-06-07 21:00:00,
2013-06-07 17:02:00,84.1,74.5,29.83,WSW,252,0.0,10.0,73,0.00,,---,0.00,VWS V14.01,2013-06-07 21:02:00,
2013-06-07 17:05:00,84.1,74.5,29.83,SW,230,0.0,0.0,73,0.00,,---,0.00,VWS V14.01,2013-06-07 21:05:00,
2013-06-07 17:07:00,84.0,74.4,29.83,WSW,256,0.0,5.0,73,0.00,,---,0.00,VWS V14.01,2013-06-07 21:07:00,
2013-06-07 17:08:00,84.0,74.4,29.83,WSW,256,0.0,5.0,73,0.00,,---,0.00,VWS V14.01,2013-06-07 21:08:00,
2013-06-07 17:10:00,83.8,74.2,29.83,SSW,207,0.0,5.0,73,0.00,,---,0.00,VWS V14.01,2013-06-07 21:10:00,
2013-06-07 17:14:00,83.8,74.2,29.83,SW,231,0.0,5.0,73,0.00,,---,0.00,VWS V14.01,2013-06-07 21:14:00,
2013-06-07 17:15:00,83.8,74.2,29.83,SSE,147,0.0,5.0,73,0.00,,---,0.00,VWS V14.01,2013-06-07 21:15:00,
2013-06-07 17:17:00,83.6,74.0,29.83,SW,229,0.0,5.0,73,0.00,,---,0.00,VWS V14.01,2013-06-07 21:17:00,
2013-06-07 17:19:00,83.6,74.0,29.83,West,266,0.0,5.0,73,0.00,,---,0.00,VWS V14.01,2013-06-07 21:19:00,
2013-06-07 17:21:00,83.6,74.0,29.83,West,266,0.0,5.0,73,0.00,,---,0.00,VWS V14.01,2013-06-07 21:21:00,
2013-06-07 17:25:00,83.6,74.0,29.83,West,266,1.0,5.0,73,0.00,,---,0.00,VWS V14.01,2013-06-07 21:25:00,
2013-06-07 17:26:00,83.4,73.8,29.83,West,263,0.0,7.0,73,0.00,,---,0.00,VWS V14.01,2013-06-07 21:26:00,
2013-06-07 17:27:00,83.4,73.8,29.83,West,265,0.0,7.0,73,0.00,,---,0.00,VWS V14.01,2013-06-07 21:27:00,
2013-06-07 17:30:00,83.4,74.2,29.83,West,265,0.0,7.0,74,0.00,,---,0.00,VWS V14.01,2013-06-07 21:30:00,
2013-06-07 17:31:00,83.4,74.2,29.83,West,266,0.0,7.0,74,0.00,,---,0.00,VWS V14.01,2013-06-07 21:31:00,
2013-06-07 17:32:00,83.6,74.4,29.83,West,266,0.0,7.0,74,0.00,,---,0.00,VWS V14.01,2013-06-07 21:32:00,
2013-06-07 17:35:00,83.6,74.4,29.83,West,267,0.0,7.0,74,0.00,,---,0.00,VWS V14.01,2013-06-07 21:35:00,
2013-06-07 17:37:00,83.6,74.4,29.83,West,267,0.0,7.0,74,0.00,,---,0.00,VWS V14.01,2013-06-07 21:37:00,
2013-06-07 17:40:00,83.6,74.0,29.83,West,268,0.0,7.0,73,0.00,,---,0.00,VWS V14.01,2013-06-07 21:40:00,
2013-06-07 17:41:00,83.4,73.8,29.83,WSW,246,0.0,7.0,73,0.00,,---,0.00,VWS V14.01,2013-06-07 21:41:00,
2013-06-07 17:42:00,83.2,73.7,29.83,West,262,2.0,8.0,73,0.00,,---,0.00,VWS V14.01,2013-06-07 21:42:00,
2013-06-07 17:46:00,82.6,73.5,29.83,WNW,283,5.0,8.0,74,0.00,,---,0.00,VWS V14.01,2013-06-07 21:46:00,
2013-06-07 17:48:00,82.6,73.9,29.83,West,260,0.0,8.0,75,0.00,,---,0.00,VWS V14.01,2013-06-07 21:48:00,
2013-06-07 17:52:00,82.4,73.7,29.83,West,275,0.0,8.0,75,0.00,,---,0.00,VWS V14.01,2013-06-07 21:52:00,
2013-06-07 17:54:00,82.6,73.9,29.83,West,275,0.0,8.0,75,0.00,,---,0.00,VWS V14.01,2013-06-07 21:54:00,
2013-06-07 17:56:00,82.6,73.9,29.83,West,275,0.0,8.0,75,0.00,,---,0.00,VWS V14.01,2013-06-07 21:56:00,
2013-06-07 17:57:00,82.6,73.9,29.83,West,276,0.0,8.0,75,0.00,,---,0.00,VWS V14.01,2013-06-07 21:57:00,
2013-06-07 17:58:00,82.8,74.1,29.83,West,276,0.0,8.0,75,0.00,,---,0.00,VWS V14.01,2013-06-07 21:58:00,
2013-06-07 18:02:00,82.8,74.1,29.83,West,276,0.0,8.0,75,0.00,,---,0.00,VWS V14.01,2013-06-07 22:02:00,
2013-06-07 18:03:00,82.8,74.1,29.83,West,276,0.0,8.0,75,0.00,,---,0.00,VWS V14.01,2013-06-07 22:03:00,
2013-06-07 18:06:00,83.0,74.3,29.82,WSW,257,0.0,0.0,75,0.00,,---,0.00,VWS V14.01,2013-06-07 22:06:00,
2013-06-07 18:07:00,83.0,73.9,29.82,SSW,211,0.0,0.0,74,0.00,,---,0.00,VWS V14.01,2013-06-07 22:07:00,
2013-06-07 18:11:00,83.2,74.1,29.82,WSW,242,1.0,6.0,74,0.00,,---,0.00,VWS V14.01,2013-06-07 22:11:00,
2013-06-07 18:13:00,83.2,74.5,29.82,WSW,242,0.0,6.0,75,0.00,,---,0.00,VWS V14.01,2013-06-07 22:13:00,
2013-06-07 18:16:00,83.4,74.2,29.82,WSW,248,0.0,6.0,74,0.00,,---,0.00,VWS V14.01,2013-06-07 22:16:00,
2013-06-07 18:19:00,83.4,74.2,29.82,WSW,238,3.0,6.0,74,0.00,,---,0.00,VWS V14.01,2013-06-07 22:19:00,
2013-06-07 18:21:00,83.0,73.9,29.82,WSW,239,0.0,6.0,74,0.00,,---,0.00,VWS V14.01,2013-06-07 22:21:00,
2013-06-07 18:22:00,82.8,73.7,29.82,WSW,249,0.0,6.0,74,0.00,,---,0.00,VWS V14.01,2013-06-07 22:22:00,
2013-06-07 18:24:00,82.6,73.5,29.82,WSW,249,0.0,6.0,74,0.00,,---,0.00,VWS V14.01,2013-06-07 22:24:00,
2013-06-07 18:25:00,82.4,73.7,29.82,West,264,1.0,6.0,75,0.00,,---,0.00,VWS V14.01,2013-06-07 22:25:00,
2013-06-07 18:26:00,82.2,73.5,29.82,WSW,251,0.0,6.0,75,0.00,,---,0.00,VWS V14.01,2013-06-07 22:26:00,
2013-06-07 18:28:00,82.0,73.3,29.82,WSW,251,0.0,6.0,75,0.00,,---,0.00,VWS V14.01,2013-06-07 22:28:00,
2013-06-07 18:30:00,82.0,73.7,29.82,WSW,253,0.0,6.0,76,0.00,,---,0.00,VWS V14.01,2013-06-07 22:30:00,
2013-06-07 18:31:00,81.8,73.5,29.82,WSW,237,0.0,6.0,76,0.00,,---,0.00,VWS V14.01,2013-06-07 22:31:00,
2013-06-07 18:33:00,81.6,73.7,29.83,WSW,237,0.0,6.0,77,0.00,,---,0.00,VWS V14.01,2013-06-07 22:33:00,
2013-06-07 18:37:00,81.6,74.1,29.83,WSW,244,1.0,6.0,78,0.00,,---,0.00,VWS V14.01,2013-06-07 22:37:00,
2013-06-07 18:38:00,81.6,74.1,29.83,SW,214,0.0,6.0,78,0.00,,---,0.00,VWS V14.01,2013-06-07 22:38:00,
2013-06-07 18:39:00,81.4,73.5,29.83,SW,217,0.0,6.0,77,0.00,,---,0.00,VWS V14.01,2013-06-07 22:39:00,
2013-06-07 18:43:00,81.2,73.7,29.83,SW,216,0.0,6.0,78,0.00,,---,0.00,VWS V14.01,2013-06-07 22:43:00,
2013-06-07 18:44:00,81.2,73.7,29.83,SW,216,0.0,6.0,78,0.00,,---,0.00,VWS V14.01,2013-06-07 22:44:00,
2013-06-07 18:45:00,81.2,73.7,29.83,SW,216,0.0,6.0,78,0.00,,---,0.00,VWS V14.01,2013-06-07 22:45:00,
2013-06-07 18:46:00,81.2,73.7,29.83,SW,216,0.0,6.0,78,0.00,,---,0.00,VWS V14.01,2013-06-07 22:46:00,
2013-06-07 18:49:00,81.2,73.7,29.83,WSW,246,2.0,6.0,78,0.00,,---,0.00,VWS V14.01,2013-06-07 22:49:00,
2013-06-07 18:51:00,81.1,73.6,29.83,WSW,254,0.0,6.0,78,0.00,,---,0.00,VWS V14.01,2013-06-07 22:51:00,
2013-06-07 18:52:00,81.1,74.0,29.83,WSW,245,0.0,6.0,79,0.00,,---,0.00,VWS V14.01,2013-06-07 22:52:00,
2013-06-07 18:55:00,80.9,73.8,29.83,SW,233,0.0,6.0,79,0.00,,---,0.00,VWS V14.01,2013-06-07 22:55:00,
2013-06-07 18:57:00,80.7,73.6,29.83,SW,233,0.0,6.0,79,0.00,,---,0.00,VWS V14.01,2013-06-07 22:57:00,
2013-06-07 18:58:00,80.7,73.6,29.83,SW,234,0.0,6.0,79,0.00,,---,0.00,VWS V14.01,2013-06-07 22:58:00,
2013-06-07 18:59:00,80.7,73.6,29.83,SW,234,0.0,6.0,79,0.00,,---,0.00,VWS V14.01,2013-06-07 22:59:00,
2013-06-07 19:00:00,80.7,73.6,29.83,SW,234,0.0,6.0,79,0.00,,---,0.00,VWS V14.01,2013-06-07 23:00:00,
2013-06-07 19:02:00,80.5,73.4,29.83,SW,234,0.0,6.0,79,0.00,,---,0.00,VWS V14.01,2013-06-07 23:02:00,
2013-06-07 19:05:00,80.5,73.4,29.83,SW,234,0.0,0.0,79,0.00,,---,0.00,VWS V14.01,2013-06-07 23:05:00,
2013-06-07 19:06:00,80.5,73.4,29.83,SW,234,0.0,0.0,79,0.00,,---,0.00,VWS V14.01,2013-06-07 23:06:00,
2013-06-07 19:07:00,80.3,73.6,29.83,SW,234,0.0,0.0,80,0.00,,---,0.00,VWS V14.01,2013-06-07 23:07:00,
2013-06-07 19:08:00,80.3,73.6,29.83,SW,234,0.0,0.0,80,0.00,,---,0.00,VWS V14.01,2013-06-07 23:08:00,
2013-06-07 19:12:00,80.5,73.8,29.83,SW,234,0.0,0.0,80,0.00,,---,0.00,VWS V14.01,2013-06-07 23:12:00,
2013-06-07 19:13:00,80.3,73.6,29.83,SW,234,0.0,0.0,80,0.00,,---,0.00,VWS V14.01,2013-06-07 23:13:00,
2013-06-07 19:14:00,80.3,73.6,29.83,SW,234,0.0,0.0,80,0.00,,---,0.00,VWS V14.01,2013-06-07 23:14:00,
2013-06-07 19:15:00,80.3,73.6,29.83,SW,234,0.0,0.0,80,0.00,,---,0.00,VWS V14.01,2013-06-07 23:15:00,
2013-06-07 19:18:00,80.3,73.6,29.83,SW,234,0.0,0.0,80,0.00,,---,0.00,VWS V14.01,2013-06-07 23:18:00,
2013-06-07 19:20:00,80.3,73.6,29.83,SW,234,0.0,0.0,80,0.00,,---,0.00,VWS V14.01,2013-06-07 23:20:00,
2013-06-07 19:22:00,80.5,74.1,29.83,SW,234,0.0,0.0,81,0.00,,---,0.00,VWS V14.01,2013-06-07 23:22:00,
2013-06-07 19:26:00,80.5,73.8,29.83,SW,234,0.0,0.0,80,0.00,,---,0.00,VWS V14.01,2013-06-07 23:26:00,
2013-06-07 19:29:00,80.5,73.8,29.83,SW,234,0.0,0.0,80,0.00,,---,0.00,VWS V14.01,2013-06-07 23:29:00,
2013-06-07 19:30:00,80.5,73.8,29.83,SW,234,0.0,0.0,80,0.00,,---,0.00,VWS V14.01,2013-06-07 23:30:00,
2013-06-07 19:33:00,80.5,73.8,29.83,SW,234,0.0,0.0,80,0.00,,---,0.00,VWS V14.01,2013-06-07 23:33:00,
2013-06-07 19:35:00,80.5,73.8,29.83,SW,234,0.0,0.0,80,0.00,,---,0.00,VWS V14.01,2013-06-07 23:35:00,
2013-06-07 19:37:00,80.5,73.8,29.83,SW,234,0.0,0.0,80,0.00,,---,0.00,VWS V14.01,2013-06-07 23:37:00,
2013-06-07 19:39:00,80.5,73.8,29.83,SW,234,0.0,0.0,80,0.00,,---,0.00,VWS V14.01,2013-06-07 23:39:00,
2013-06-07 19:40:00,80.5,74.1,29.83,SW,234,0.0,0.0,81,0.00,,---,0.00,VWS V14.01,2013-06-07 23:40:00,
2013-06-07 19:44:00,80.3,73.6,29.83,SW,234,0.0,0.0,80,0.00,,---,0.00,VWS V14.01,2013-06-07 23:44:00,
2013-06-07 19:45:00,80.3,73.9,29.83,SW,234,0.0,0.0,81,0.00,,---,0.00,VWS V14.01,2013-06-07 23:45:00,
2013-06-07 19:47:00,80.3,73.9,29.83,SW,234,0.0,0.0,81,0.00,,---,0.00,VWS V14.01,2013-06-07 23:47:00,
2013-06-07 19:51:00,80.3,73.9,29.83,SW,234,0.0,0.0,81,0.00,,---,0.00,VWS V14.01,2013-06-07 23:51:00,
2013-06-07 19:53:00,80.3,73.9,29.83,SW,234,0.0,0.0,81,0.00,,---,0.00,VWS V14.01,2013-06-07 23:53:00,
2013-06-07 19:54:00,80.1,73.8,29.83,SW,234,0.0,0.0,81,0.00,,---,0.00,VWS V14.01,2013-06-07 23:54:00,
2013-06-07 19:55:00,80.1,73.8,29.83,SW,234,0.0,0.0,81,0.00,,---,0.00,VWS V14.01,2013-06-07 23:55:00,
2013-06-07 19:57:00,80.1,73.8,29.83,SW,234,0.0,0.0,81,0.00,,---,0.00,VWS V14.01,2013-06-07 23:57:00,
2013-06-07 20:01:00,79.9,73.6,29.83,SW,233,0.0,0.0,81,0.00,,---,0.00,VWS V14.01,2013-06-08 00:01:00,
2013-06-07 20:04:00,79.9,73.9,29.84,SW,233,0.0,0.0,82,0.00,,---,0.00,VWS V14.01,2013-06-08 00:04:00,
2013-06-07 20:05:00,79.8,73.8,29.84,SW,233,0.0,0.0,82,0.00,,---,0.00,VWS V14.01,2013-06-08 00:05:00,
2013-06-07 20:07:00,79.8,73.8,29.84,SW,233,0.0,0.0,82,0.00,,---,0.00,VWS V14.01,2013-06-08 00:07:00,
2013-06-07 20:10:00,79.8,73.8,29.84,SW,224,0.0,0.0,82,0.00,,---,0.00,VWS V14.01,2013-06-08 00:10:00,
2013-06-07 20:11:00,79.6,73.6,29.84,SW,224,0.0,0.0,82,0.00,,---,0.00,VWS V14.01,2013-06-08 00:11:00,
2013-06-07 20:15:00,79.6,73.6,29.84,SW,224,0.0,0.0,82,0.00,,---,0.00,VWS V14.01,2013-06-08 00:15:00,
2013-06-07 20:18:00,79.4,73.4,29.84,SW,224,0.0,0.0,82,0.00,,---,0.00,VWS V14.01,2013-06-08 00:18:00,
2013-06-07 20:19:00,79.4,73.4,29.84,SW,224,0.0,0.0,82,0.00,,---,0.00,VWS V14.01,2013-06-08 00:19:00,
2013-06-07 20:20:00,79.4,73.4,29.84,SW,224,0.0,0.0,82,0.00,,---,0.00,VWS V14.01,2013-06-08 00:20:00,
2013-06-07 20:22:00,79.4,73.4,29.84,SW,224,0.0,0.0,82,0.00,,---,0.00,VWS V14.01,2013-06-08 00:22:00,
2013-06-07 20:24:00,79.2,73.2,29.84,SW,224,0.0,0.0,82,0.00,,---,0.00,VWS V14.01,2013-06-08 00:24:00,
2013-06-07 20:27:00,79.2,73.6,29.84,SW,224,0.0,0.0,83,0.00,,---,0.00,VWS V14.01,2013-06-08 00:27:00,
2013-06-07 20:30:00,79.2,73.6,29.84,SW,224,0.0,0.0,83,0.00,,---,0.00,VWS V14.01,2013-06-08 00:30:00,
2013-06-07 20:31:00,79.2,73.6,29.84,SW,224,0.0,0.0,83,0.00,,---,0.00,VWS V14.01,2013-06-08 00:31:00,
2013-06-07 20:32:00,79.0,73.4,29.84,SW,224,0.0,0.0,83,0.00,,---,0.00,VWS V14.01,2013-06-08 00:32:00,
2013-06-07 20:33:00,79.0,73.4,29.84,SW,224,0.0,0.0,83,0.00,,---,0.00,VWS V14.01,2013-06-08 00:33:00,
2013-06-07 20:37:00,78.8,73.2,29.84,SW,224,0.0,0.0,83,0.00,,---,0.00,VWS V14.01,2013-06-08 00:37:00,
2013-06-07 20:38:00,78.8,73.2,29.84,SW,224,0.0,0.0,83,0.00,,---,0.00,VWS V14.01,2013-06-08 00:38:00,
2013-06-07 20:39:00,78.8,73.2,29.84,SW,224,0.0,0.0,83,0.00,,---,0.00,VWS V14.01,2013-06-08 00:39:00,
2013-06-07 20:42:00,78.6,73.0,29.84,SW,224,0.0,0.0,83,0.00,,---,0.00,VWS V14.01,2013-06-08 00:42:00,
2013-06-07 20:44:00,78.6,73.4,29.84,SW,224,0.0,0.0,84,0.00,,---,0.00,VWS V14.01,2013-06-08 00:44:00,
2013-06-07 20:45:00,78.6,73.4,29.84,SW,224,0.0,0.0,84,0.00,,---,0.00,VWS V14.01,2013-06-08 00:45:00,
2013-06-07 20:50:00,78.5,73.3,29.84,SW,224,0.0,0.0,84,0.00,,---,0.00,VWS V14.01,2013-06-08 00:50:00,
2013-06-07 20:51:00,78.5,73.3,29.84,SW,224,0.0,0.0,84,0.00,,---,0.00,VWS V14.01,2013-06-08 00:51:00,
2013-06-07 20:54:00,78.3,73.1,29.84,SW,224,0.0,1.0,84,0.00,,---,0.00,VWS V14.01,2013-06-08 00:54:00,
2013-06-07 20:55:00,78.3,73.1,29.84,SW,224,0.0,1.0,84,0.00,,---,0.00,VWS V14.01,2013-06-08 00:55:00,
2013-06-07 20:56:00,78.3,73.1,29.84,SW,224,0.0,1.0,84,0.00,,---,0.00,VWS V14.01,2013-06-08 00:56:00,
2013-06-07 21:00:00,78.1,73.2,29.84,SW,224,0.0,1.0,85,0.00,,---,0.00,VWS V14.01,2013-06-08 01:00:00,
2013-06-07 21:01:00,78.1,73.2,29.84,SW,224,0.0,1.0,85,0.00,,---,0.00,VWS V14.01,2013-06-08 01:01:00,
2013-06-07 21:02:00,78.1,73.2,29.84,SW,224,0.0,1.0,85,0.00,,---,0.00,VWS V14.01,2013-06-08 01:02:00,
2013-06-07 21:03:00,77.9,73.0,29.84,SW,224,0.0,1.0,85,0.00,,---,0.00,VWS V14.01,2013-06-08 01:03:00,
2013-06-07 21:06:00,77.9,73.0,29.84,SSE,167,0.0,0.0,85,0.00,,---,0.00,VWS V14.01,2013-06-08 01:06:00,
2013-06-07 21:07:00,77.9,73.0,29.84,SSE,167,0.0,0.0,85,0.00,,---,0.00,VWS V14.01,2013-06-08 01:07:00,
2013-06-07 21:08:00,77.7,72.8,29.84,SSE,167,0.0,0.0,85,0.00,,---,0.00,VWS V14.01,2013-06-08 01:08:00,
2013-06-07 21:11:00,77.7,72.8,29.84,SSE,167,0.0,0.0,85,0.00,,---,0.00,VWS V14.01,2013-06-08 01:11:00,
2013-06-07 21:13:00,77.7,72.8,29.84,SSE,167,0.0,0.0,85,0.00,,---,0.00,VWS V14.01,2013-06-08 01:13:00,
2013-06-07 21:14:00,77.7,72.8,29.84,SSE,167,0.0,0.0,85,0.00,,---,0.00,VWS V14.01,2013-06-08 01:14:00,
2013-06-07 21:15:00,77.6,72.7,29.84,SSE,167,0.0,0.0,85,0.00,,---,0.00,VWS V14.01,2013-06-08 01:15:00,
2013-06-07 21:18:00,77.6,72.7,29.84,SSE,167,0.0,0.0,85,0.00,,---,0.00,VWS V14.01,2013-06-08 01:18:00,
2013-06-07 21:19:00,77.6,72.7,29.84,SSE,167,0.0,0.0,85,0.00,,---,0.00,VWS V14.01,2013-06-08 01:19:00,
2013-06-07 21:20:00,77.6,72.7,29.84,SSE,167,0.0,0.0,85,0.00,,---,0.00,VWS V14.01,2013-06-08 01:20:00,
2013-06-07 21:21:00,77.6,72.7,29.84,SSE,167,0.0,0.0,85,0.00,,---,0.00,VWS V14.01,2013-06-08 01:21:00,
2013-06-07 21:26:00,77.4,72.9,29.84,SSE,167,0.0,0.0,86,0.00,,---,0.00,VWS V14.01,2013-06-08 01:26:00,
2013-06-07 21:28:00,77.4,72.9,29.84,SSE,167,0.0,0.0,86,0.00,,---,0.00,VWS V14.01,2013-06-08 01:28:00,
2013-06-07 21:31:00,77.2,72.7,29.84,SSE,167,0.0,0.0,86,0.00,,---,0.00,VWS V14.01,2013-06-08 01:31:00,
2013-06-07 21:34:00,77.2,72.7,29.84,SSE,167,0.0,0.0,86,0.00,,---,0.00,VWS V14.01,2013-06-08 01:34:00,
2013-06-07 21:36:00,77.2,72.7,29.84,SSE,167,0.0,0.0,86,0.00,,---,0.00,VWS V14.01,2013-06-08 01:36:00,
2013-06-07 21:37:00,77.2,72.7,29.84,SSE,167,0.0,0.0,86,0.00,,---,0.00,VWS V14.01,2013-06-08 01:37:00,
2013-06-07 21:38:00,77.2,72.7,29.84,SSE,167,0.0,0.0,86,0.00,,---,0.00,VWS V14.01,2013-06-08 01:38:00,
2013-06-07 21:42:00,77.0,72.8,29.84,SSE,167,0.0,0.0,87,0.00,,---,0.00,VWS V14.01,2013-06-08 01:42:00,
2013-06-07 21:43:00,77.0,72.8,29.84,SSE,167,0.0,0.0,87,0.00,,---,0.00,VWS V14.01,2013-06-08 01:43:00,
2013-06-07 21:44:00,77.0,72.8,29.84,SSE,167,0.0,0.0,87,0.00,,---,0.00,VWS V14.01,2013-06-08 01:44:00,
2013-06-07 21:47:00,77.0,72.8,29.84,SSE,167,0.0,0.0,87,0.00,,---,0.00,VWS V14.01,2013-06-08 01:47:00,
2013-06-07 21:50:00,76.8,72.6,29.85,SSE,167,0.0,0.0,87,0.00,,---,0.00,VWS V14.01,2013-06-08 01:50:00,
2013-06-07 21:52:00,76.8,72.6,29.85,SSE,167,0.0,0.0,87,0.00,,---,0.00,VWS V14.01,2013-06-08 01:52:00,
2013-06-07 21:58:00,76.8,72.6,29.85,SSE,167,0.0,0.0,87,0.00,,---,0.00,VWS V14.01,2013-06-08 01:58:00,
2013-06-07 21:59:00,76.7,72.5,29.85,SSE,167,0.0,0.0,87,0.00,,---,0.00,VWS V14.01,2013-06-08 01:59:00,
2013-06-07 22:01:00,76.7,72.9,29.85,SSE,167,0.0,0.0,88,0.00,,---,0.00,VWS V14.01,2013-06-08 02:01:00,
2013-06-07 22:03:00,76.7,72.9,29.85,SSE,167,0.0,0.0,88,0.00,,---,0.00,VWS V14.01,2013-06-08 02:03:00,
2013-06-07 22:05:00,76.7,72.9,29.85,SSE,167,0.0,0.0,88,0.00,,---,0.00,VWS V14.01,2013-06-08 02:05:00,
2013-06-07 22:06:00,76.7,72.9,29.85,SSE,167,0.0,0.0,88,0.00,,---,0.00,VWS V14.01,2013-06-08 02:06:00,
2013-06-07 22:07:00,76.7,72.9,29.85,SSE,167,0.0,0.0,88,0.00,,---,0.00,VWS V14.01,2013-06-08 02:07:00,
2013-06-07 22:10:00,76.7,72.9,29.85,SSE,167,0.0,0.0,88,0.00,,---,0.00,VWS V14.01,2013-06-08 02:10:00,
2013-06-07 22:13:00,76.7,72.9,29.85,SSE,167,0.0,0.0,88,0.00,,---,0.00,VWS V14.01,2013-06-08 02:13:00,
2013-06-07 22:14:00,76.7,72.9,29.85,SSE,167,0.0,0.0,88,0.00,,---,0.00,VWS V14.01,2013-06-08 02:14:00,
2013-06-07 22:16:00,76.5,72.7,29.85,SSE,167,0.0,0.0,88,0.00,,---,0.00,VWS V14.01,2013-06-08 02:16:00,
2013-06-07 22:18:00,76.5,72.7,29.86,SSE,167,0.0,0.0,88,0.00,,---,0.00,VWS V14.01,2013-06-08 02:18:00,
2013-06-07 22:20:00,76.5,72.7,29.86,SSE,167,0.0,0.0,88,0.00,,---,0.00,VWS V14.01,2013-06-08 02:20:00,
2013-06-07 22:23:00,76.5,73.0,29.86,SSE,167,0.0,0.0,89,0.00,,---,0.00,VWS V14.01,2013-06-08 02:23:00,
2013-06-07 22:26:00,76.3,72.8,29.86,SSE,167,0.0,0.0,89,0.00,,---,0.00,VWS V14.01,2013-06-08 02:26:00,
2013-06-07 22:27:00,76.3,72.8,29.86,SSE,167,0.0,0.0,89,0.00,,---,0.00,VWS V14.01,2013-06-08 02:27:00,
2013-06-07 22:28:00,76.3,72.8,29.86,SSE,167,0.0,0.0,89,0.00,,---,0.00,VWS V14.01,2013-06-08 02:28:00,
2013-06-07 22:29:00,76.3,72.8,29.86,SSE,167,0.0,0.0,89,0.00,,---,0.00,VWS V14.01,2013-06-08 02:29:00,
2013-06-07 22:32:00,76.1,72.6,29.86,SSE,167,0.0,0.0,89,0.00,,---,0.00,VWS V14.01,2013-06-08 02:32:00,
2013-06-07 22:33:00,76.1,72.6,29.86,SSE,167,0.0,0.0,89,0.00,,---,0.00,VWS V14.01,2013-06-08 02:33:00,
2013-06-07 22:34:00,76.1,73.0,29.86,SSE,167,0.0,0.0,90,0.00,,---,0.00,VWS V14.01,2013-06-08 02:34:00,
2013-06-07 22:38:00,76.0,72.9,29.86,SSE,167,0.0,0.0,90,0.00,,---,0.00,VWS V14.01,2013-06-08 02:38:00,
2013-06-07 22:39:00,76.0,72.9,29.86,SSE,167,0.0,0.0,90,0.00,,---,0.00,VWS V14.01,2013-06-08 02:39:00,
2013-06-07 22:40:00,76.0,72.9,29.86,SSE,167,0.0,0.0,90,0.00,,---,0.00,VWS V14.01,2013-06-08 02:40:00,
2013-06-07 22:45:00,75.8,72.7,29.86,SSE,167,0.0,0.0,90,0.00,,---,0.00,VWS V14.01,2013-06-08 02:45:00,
2013-06-07 22:46:00,75.8,72.7,29.86,SSE,167,0.0,0.0,90,0.00,,---,0.00,VWS V14.01,2013-06-08 02:46:00,
2013-06-07 22:48:00,75.8,72.7,29.86,SSE,167,0.0,0.0,90,0.00,,---,0.00,VWS V14.01,2013-06-08 02:48:00,
2013-06-07 22:50:00,75.8,72.7,29.86,SSE,167,0.0,0.0,90,0.00,,---,0.00,VWS V14.01,2013-06-08 02:50:00,
2013-06-07 22:53:00,75.8,72.7,29.86,SSE,167,0.0,0.0,90,0.00,,---,0.00,VWS V14.01,2013-06-08 02:53:00,
2013-06-07 22:55:00,75.6,72.8,29.86,SSE,167,0.0,0.0,91,0.00,,---,0.00,VWS V14.01,2013-06-08 02:55:00,
2013-06-07 22:57:00,75.6,72.8,29.86,SSE,167,0.0,0.0,91,0.00,,---,0.00,VWS V14.01,2013-06-08 02:57:00,
2013-06-07 22:58:00,75.6,72.8,29.86,SSE,167,0.0,0.0,91,0.00,,---,0.00,VWS V14.01,2013-06-08 02:58:00,
2013-06-07 23:00:00,75.6,72.8,29.86,SSE,167,0.0,0.0,91,0.00,,---,0.00,VWS V14.01,2013-06-08 03:00:00,
2013-06-07 23:03:00,75.6,72.8,29.86,SSE,167,0.0,0.0,91,0.00,,---,0.00,VWS V14.01,2013-06-08 03:03:00,
2013-06-07 23:05:00,75.6,72.8,29.87,SSE,167,0.0,0.0,91,0.00,,---,0.00,VWS V14.01,2013-06-08 03:05:00,
2013-06-07 23:09:00,75.4,72.6,29.87,SSE,167,0.0,0.0,91,0.00,,---,0.00,VWS V14.01,2013-06-08 03:09:00,
2013-06-07 23:11:00,75.4,72.6,29.87,SSE,167,0.0,0.0,91,0.00,,---,0.00,VWS V14.01,2013-06-08 03:11:00,
2013-06-07 23:14:00,75.4,72.6,29.87,SSE,167,0.0,0.0,91,0.00,,---,0.00,VWS V14.01,2013-06-08 03:14:00,
2013-06-07 23:15:00,75.4,72.6,29.87,SSE,167,0.0,0.0,91,0.00,,---,0.00,VWS V14.01,2013-06-08 03:15:00,
2013-06-07 23:16:00,75.3,72.5,29.87,SSE,167,0.0,0.0,91,0.00,,---,0.00,VWS V14.01,2013-06-08 03:16:00,
2013-06-07 23:19:00,75.3,72.5,29.87,SSE,167,0.0,0.0,91,0.00,,---,0.00,VWS V14.01,2013-06-08 03:19:00,
2013-06-07 23:21:00,75.3,72.5,29.87,SSE,167,0.0,0.0,91,0.00,,---,0.00,VWS V14.01,2013-06-08 03:21:00,
2013-06-07 23:22:00,75.3,72.5,29.87,SSE,167,0.0,0.0,91,0.00,,---,0.00,VWS V14.01,2013-06-08 03:22:00,
2013-06-07 23:25:00,75.3,72.5,29.87,SSE,167,0.0,0.0,91,0.00,,---,0.00,VWS V14.01,2013-06-08 03:25:00,
2013-06-07 23:29:00,75.3,72.8,29.87,SSE,167,0.0,0.0,92,0.00,,---,0.00,VWS V14.01,2013-06-08 03:29:00,
2013-06-07 23:30:00,75.1,72.3,29.87,SSE,167,0.0,0.0,91,0.00,,---,0.00,VWS V14.01,2013-06-08 03:30:00,
2013-06-07 23:31:00,75.1,72.3,29.87,SSE,167,0.0,0.0,91,0.00,,---,0.00,VWS V14.01,2013-06-08 03:31:00,
2013-06-07 23:35:00,75.1,72.3,29.88,SSE,167,0.0,0.0,91,0.00,,---,0.00,VWS V14.01,2013-06-08 03:35:00,
2013-06-07 23:36:00,75.1,72.6,29.88,SSE,167,0.0,0.0,92,0.00,,---,0.00,VWS V14.01,2013-06-08 03:36:00,
2013-06-07 23:40:00,74.9,72.4,29.88,SSE,167,0.0,0.0,92,0.00,,---,0.00,VWS V14.01,2013-06-08 03:40:00,
2013-06-07 23:41:00,74.9,72.4,29.88,SSE,167,0.0,0.0,92,0.00,,---,0.00,VWS V14.01,2013-06-08 03:41:00,
2013-06-07 23:42:00,74.9,72.4,29.88,SSE,167,0.0,0.0,92,0.00,,---,0.00,VWS V14.01,2013-06-08 03:42:00,
2013-06-07 23:46:00,74.9,72.4,29.88,SSE,167,0.0,0.0,92,0.00,,---,0.00,VWS V14.01,2013-06-08 03:46:00,
2013-06-07 23:47:00,74.9,72.4,29.88,SSE,167,0.0,0.0,92,0.00,,---,0.00,VWS V14.01,2013-06-08 03:47:00,
2013-06-07 23:49:00,74.9,72.4,29.88,SSE,167,0.0,0.0,92,0.00,,---,0.00,VWS V14.01,2013-06-08 03:49:00,
2013-06-07 23:50:00,74.9,72.4,29.88,SSE,167,0.0,0.0,92,0.00,,---,0.00,VWS V14.01,2013-06-08 03:50:00,
2013-06-07 23:53:00,74.7,72.2,29.88,SSE,167,0.0,0.0,92,0.00,,---,0.00,VWS V14.01,2013-06-08 03:53:00,
2013-06-07 23:54:00,74.7,72.2,29.88,SSE,167,0.0,0.0,92,0.00,,---,0.00,VWS V14.01,2013-06-08 03:54:00,
2013-06-07 23:56:00,74.7,72.2,29.88,SSE,167,0.0,0.0,92,0.00,,---,0.00,VWS V14.01,2013-06-08 03:56:00,
2013-06-07 23:59:00,74.7,72.2,29.88,SSE,167,0.0,0.0,92,0.00,,---,0.00,VWS V14.01,2013-06-08 03:59:00,